Wetterdaten: Mittwoch, 18.09.2013
Datum Zeit Temp. Aussen +5cm Feuchte Auss Luftdruck Regen Sonnenschein Regendauer UV Solar Windben
18.09.2013 00:00 9,9 C 8,9 C 98 % 994,3 hPa 0,0 l/m 0 min 2 min 0,0 UV-I 0 W/m 10,3 km/h (2 Bft)
18.09.2013 00:02 9,9 C 8,9 C 98 % 994,3 hPa 0,0 l/m 0 min 2 min 0,0 UV-I 0 W/m 2,6 km/h (1 Bft)
18.09.2013 00:06 10,0 C 8,9 C 98 % 994,2 hPa 0,2 l/m 0 min 2 min 0,0 UV-I 0 W/m 10,3 km/h (2 Bft)
18.09.2013 00:08 10,0 C 8,9 C 98 % 994,2 hPa 0,0 l/m 0 min 2 min 0,0 UV-I 0 W/m 10,3 km/h (2 Bft)
18.09.2013 00:10 10,0 C 8,9 C 98 % 994,2 hPa 0,0 l/m 0 min 0 min 0,0 UV-I 0 W/m 10,3 km/h (2 Bft)
18.09.2013 00:12 10,0 C 8,9 C 98 % 994,1 hPa 0,0 l/m 0 min 0 min 0,0 UV-I 0 W/m 15,4 km/h (3 Bft)
18.09.2013 00:14 10,0 C 8,9 C 98 % 994,1 hPa 0,0 l/m 0 min 0 min 0,0 UV-I 0 W/m 10,3 km/h (2 Bft)
18.09.2013 00:16 10,0 C 8,9 C 98 % 994,0 hPa 0,0 l/m 0 min 0 min 0,0 UV-I 0 W/m 7,7 km/h (2 Bft)
18.09.2013 00:18 10,0 C 8,9 C 98 % 994,0 hPa 0,2 l/m 0 min 0 min 0,0 UV-I 0 W/m 18,0 km/h (3 Bft)
18.09.2013 00:20 10,0 C 8,9 C 98 % 993,9 hPa 0,0 l/m 0 min 2 min 0,0 UV-I 0 W/m 2,6 km/h (1 Bft)
18.09.2013 00:22 10,0 C 8,9 C 98 % 993,9 hPa 0,0 l/m 0 min 0 min 0,0 UV-I 0 W/m 10,3 km/h (2 Bft)
18.09.2013 00:24 10,0 C 8,9 C 98 % 993,9 hPa 0,0 l/m 0 min 0 min 0,0 UV-I 0 W/m 10,3 km/h (2 Bft)
18.09.2013 00:26 10,0 C 8,9 C 98 % 993,9 hPa 0,0 l/m 0 min 0 min 0,0 UV-I 0 W/m 15,4 km/h (3 Bft)
18.09.2013 00:28 10,1 C 8,9 C 98 % 993,9 hPa 0,0 l/m 0 min 0 min 0,0 UV-I 0 W/m 18,0 km/h (3 Bft)
18.09.2013 00:30 10,0 C 8,9 C 98 % 993,9 hPa 0,0 l/m 0 min 0 min 0,0 UV-I 0 W/m 12,9 km/h (3 Bft)
18.09.2013 00:32 10,1 C 8,9 C 98 % 993,8 hPa 0,0 l/m 0 min 2 min 0,0 UV-I 0 W/m 12,9 km/h (3 Bft)
18.09.2013 00:34 10,1 C 8,9 C 98 % 993,8 hPa 0,0 l/m 0 min 0 min 0,0 UV-I 0 W/m 10,3 km/h (2 Bft)
18.09.2013 00:36 10,1 C 9,4 C 98 % 993,8 hPa 0,0 l/m 0 min 2 min 0,0 UV-I 0 W/m 7,7 km/h (2 Bft)
18.09.2013 00:38 10,1 C 9,4 C 98 % 993,8 hPa 0,0 l/m 0 min 2 min 0,0 UV-I 0 W/m 7,7 km/h (2 Bft)
18.09.2013 00:40 10,1 C 9,4 C 98 % 993,7 hPa 0,0 l/m 0 min 0 min 0,0 UV-I 0 W/m 7,7 km/h (2 Bft)
18.09.2013 00:42 10,1 C 9,4 C 98 % 993,7 hPa 0,0 l/m 0 min 0 min 0,0 UV-I 0 W/m 5,1 km/h (1 Bft)
18.09.2013 00:44 10,1 C 9,4 C 98 % 993,6 hPa 0,0 l/m 0 min 2 min 0,0 UV-I 0 W/m 7,7 km/h (2 Bft)
18.09.2013 00:46 10,2 C 9,4 C 98 % 993,6 hPa 0,0 l/m 0 min 2 min 0,0 UV-I 0 W/m 15,4 km/h (3 Bft)
18.09.2013 00:48 10,2 C 9,4 C 98 % 993,5 hPa 0,2 l/m 0 min 0 min 0,0 UV-I 0 W/m 2,6 km/h (1 Bft)
18.09.2013 00:50 10,2 C 9,4 C 98 % 993,4 hPa 0,0 l/m 0 min 2 min 0,0 UV-I 0 W/m 12,9 km/h (3 Bft)
18.09.2013 00:52 10,2 C 9,4 C 98 % 993,4 hPa 0,0 l/m 0 min 0 min 0,0 UV-I 0 W/m 10,3 km/h (2 Bft)
18.09.2013 00:54 10,2 C 9,4 C 98 % 993,4 hPa 0,0 l/m 0 min 0 min 0,0 UV-I 0 W/m 7,7 km/h (2 Bft)
18.09.2013 00:56 10,2 C 9,4 C 98 % 993,3 hPa 0,0 l/m 0 min 0 min 0,0 UV-I 0 W/m 12,9 km/h (3 Bft)
18.09.2013 00:58 10,2 C 9,4 C 98 % 993,2 hPa 0,0 l/m 0 min 0 min 0,0 UV-I 0 W/m 12,9 km/h (3 Bft)
18.09.2013 01:00 10,2 C 9,4 C 98 % 993,3 hPa 0,0 l/m 0 min 0 min 0,0 UV-I 0 W/m 10,3 km/h (2 Bft)
18.09.2013 01:02 10,2 C 9,4 C 98 % 993,3 hPa 0,0 l/m 0 min 0 min 0,0 UV-I 0 W/m 12,9 km/h (3 Bft)
18.09.2013 01:06 10,2 C 9,4 C 98 % 993,2 hPa 0,0 l/m 0 min 2 min 0,0 UV-I 0 W/m 12,9 km/h (3 Bft)
18.09.2013 01:08 10,2 C 9,4 C 98 % 993,2 hPa 0,0 l/m 0 min 0 min 0,0 UV-I 0 W/m 7,7 km/h (2 Bft)
18.09.2013 01:10 10,2 C 9,4 C 98 % 993,1 hPa 0,0 l/m 0 min 2 min 0,0 UV-I 0 W/m 10,3 km/h (2 Bft)
18.09.2013 01:12 10,2 C 9,4 C 98 % 993,1 hPa 0,0 l/m 0 min 0 min 0,0 UV-I 0 W/m 5,1 km/h (1 Bft)
18.09.2013 01:14 10,3 C 9,4 C 98 % 993,2 hPa 0,0 l/m 0 min 0 min 0,0 UV-I 0 W/m 5,1 km/h (1 Bft)
18.09.2013 01:16 10,3 C 9,4 C 98 % 993,1 hPa 0,0 l/m 0 min 0 min 0,0 UV-I 0 W/m 12,9 km/h (3 Bft)
18.09.2013 01:18 10,3 C 9,4 C 98 % 993,1 hPa 0,0 l/m 0 min 0 min 0,0 UV-I 0 W/m 10,3 km/h (2 Bft)
18.09.2013 01:20 10,3 C 9,4 C 98 % 993,1 hPa 0,0 l/m 0 min 0 min 0,0 UV-I 0 W/m 10,3 km/h (2 Bft)
18.09.2013 01:22 10,3 C 9,4 C 98 % 993,1 hPa 0,0 l/m 0 min 0 min 0,0 UV-I 0 W/m 0,0 km/h (0 Bft)
18.09.2013 01:24 10,3 C 9,4 C 98 % 993,0 hPa 0,0 l/m 0 min 0 min 0,0 UV-I 0 W/m 5,1 km/h (1 Bft)
18.09.2013 01:26 10,3 C 9,4 C 98 % 993,0 hPa 0,0 l/m 0 min 2 min 0,0 UV-I 0 W/m 7,7 km/h (2 Bft)
18.09.2013 01:28 10,3 C 9,4 C 98 % 993,1 hPa 0,0 l/m 0 min 0 min 0,0 UV-I 0 W/m 10,3 km/h (2 Bft)
18.09.2013 01:30 10,3 C 9,4 C 98 % 993,1 hPa 0,0 l/m 0 min 0 min 0,0 UV-I 0 W/m 7,7 km/h (2 Bft)
18.09.2013 01:32 10,3 C 9,4 C 98 % 993,0 hPa 0,0 l/m 0 min 0 min 0,0 UV-I 0 W/m 12,9 km/h (3 Bft)
18.09.2013 01:34 10,3 C 9,4 C 98 % 992,9 hPa 0,0 l/m 0 min 0 min 0,0 UV-I 0 W/m 7,7 km/h (2 Bft)
18.09.2013 01:36 10,3 C 9,4 C 98 % 992,9 hPa 0,0 l/m 0 min 0 min 0,0 UV-I 0 W/m 10,3 km/h (2 Bft)
18.09.2013 01:38 10,3 C 9,4 C 98 % 992,9 hPa 0,0 l/m 0 min 0 min 0,0 UV-I 0 W/m 10,3 km/h (2 Bft)
18.09.2013 01:40 10,3 C 9,4 C 99 % 992,9 hPa 0,0 l/m 0 min 0 min 0,0 UV-I 0 W/m 7,7 km/h (2 Bft)
18.09.2013 01:42 10,4 C 9,4 C 99 % 992,8 hPa 0,0 l/m 0 min 0 min 0,0 UV-I 0 W/m 12,9 km/h (3 Bft)
18.09.2013 01:44 10,3 C 9,4 C 99 % 992,7 hPa 0,0 l/m 0 min 0 min 0,0 UV-I 0 W/m 7,7 km/h (2 Bft)
18.09.2013 01:46 10,4 C 9,4 C 99 % 992,7 hPa 0,0 l/m 0 min 0 min 0,0 UV-I 0 W/m 10,3 km/h (2 Bft)
18.09.2013 01:48 10,4 C 9,4 C 99 % 992,7 hPa 0,0 l/m 0 min 0 min 0,0 UV-I 0 W/m 0,0 km/h (0 Bft)
18.09.2013 01:50 10,4 C 9,4 C 99 % 992,8 hPa 0,0 l/m 0 min 0 min 0,0 UV-I 0 W/m 2,6 km/h (1 Bft)
18.09.2013 01:52 10,4 C 9,4 C 99 % 992,8 hPa 0,0 l/m 0 min 0 min 0,0 UV-I 0 W/m 2,6 km/h (1 Bft)
18.09.2013 01:54 10,4 C 9,4 C 99 % 992,9 hPa 0,0 l/m 0 min 0 min 0,0 UV-I 0 W/m 0,0 km/h (0 Bft)
18.09.2013 01:56 10,4 C 9,4 C 99 % 992,8 hPa 0,0 l/m 0 min 0 min 0,0 UV-I 0 W/m 0,0 km/h (0 Bft)
18.09.2013 01:58 10,4 C 9,4 C 99 % 992,8 hPa 0,0 l/m 0 min 0 min 0,0 UV-I 0 W/m 7,7 km/h (2 Bft)
18.09.2013 02:00 10,5 C 9,4 C 99 % 992,8 hPa 0,0 l/m 0 min 0 min 0,0 UV-I 0 W/m 0,0 km/h (0 Bft)
18.09.2013 02:02 10,5 C 9,4 C 98 % 992,7 hPa 0,0 l/m 0 min 0 min 0,0 UV-I 0 W/m 2,6 km/h (1 Bft)
18.09.2013 02:06 10,5 C 9,4 C 98 % 992,7 hPa 0,0 l/m 0 min 0 min 0,0 UV-I 0 W/m 12,9 km/h (3 Bft)
18.09.2013 02:08 10,5 C 9,4 C 98 % 992,7 hPa 0,0 l/m 0 min 0 min 0,0 UV-I 0 W/m 5,1 km/h (1 Bft)
18.09.2013 02:10 10,6 C 9,4 C 99 % 992,7 hPa 0,0 l/m 0 min 0 min 0,0 UV-I 0 W/m 5,1 km/h (1 Bft)
18.09.2013 02:12 10,5 C 9,4 C 99 % 992,8 hPa 0,0 l/m 0 min 0 min 0,0 UV-I 0 W/m 0,0 km/h (0 Bft)
18.09.2013 02:14 10,5 C 9,4 C 99 % 992,8 hPa 0,0 l/m 0 min 0 min 0,0 UV-I 0 W/m 0,0 km/h (0 Bft)
18.09.2013 02:16 10,6 C 9,4 C 99 % 992,8 hPa 0,0 l/m 0 min 0 min 0,0 UV-I 0 W/m 0,0 km/h (0 Bft)
18.09.2013 02:18 10,6 C 9,4 C 99 % 992,8 hPa 0,0 l/m 0 min 0 min 0,0 UV-I 0 W/m 2,6 km/h (1 Bft)
18.09.2013 02:20 10,6 C 10,0 C 99 % 992,7 hPa 0,0 l/m 0 min 0 min 0,0 UV-I 0 W/m 2,6 km/h (1 Bft)
18.09.2013 02:22 10,6 C 10,0 C 99 % 992,7 hPa 0,0 l/m 0 min 0 min 0,0 UV-I 0 W/m 0,0 km/h (0 Bft)
18.09.2013 02:24 10,6 C 10,0 C 99 % 992,7 hPa 0,0 l/m 0 min 0 min 0,0 UV-I 0 W/m 0,0 km/h (0 Bft)
18.09.2013 02:26 10,6 C 10,0 C 99 % 992,7 hPa 0,0 l/m 0 min 0 min 0,0 UV-I 0 W/m 2,6 km/h (1 Bft)
18.09.2013 02:28 10,7 C 10,0 C 99 % 992,8 hPa 0,0 l/m 0 min 0 min 0,0 UV-I 0 W/m 0,0 km/h (0 Bft)
18.09.2013 02:30 10,7 C 10,0 C 99 % 992,8 hPa 0,0 l/m 0 min 0 min 0,0 UV-I 0 W/m 0,0 km/h (0 Bft)
18.09.2013 02:32 10,7 C 10,0 C 99 % 992,8 hPa 0,0 l/m 0 min 0 min 0,0 UV-I 0 W/m 0,0 km/h (0 Bft)
18.09.2013 02:34 10,7 C 10,0 C 99 % 992,7 hPa 0,0 l/m 0 min 0 min 0,0 UV-I 0 W/m 0,0 km/h (0 Bft)
18.09.2013 02:36 10,7 C 10,0 C 99 % 992,8 hPa 0,0 l/m 0 min 0 min 0,0 UV-I 0 W/m 0,0 km/h (0 Bft)
18.09.2013 02:38 10,8 C 10,0 C 99 % 992,9 hPa 0,0 l/m 0 min 0 min 0,0 UV-I 0 W/m 0,0 km/h (0 Bft)
18.09.2013 02:40 10,8 C 10,0 C 99 % 992,9 hPa 0,0 l/m 0 min 0 min 0,0 UV-I 0 W/m 0,0 km/h (0 Bft)
18.09.2013 02:42 10,8 C 10,0 C 99 % 992,9 hPa 0,0 l/m 0 min 0 min 0,0 UV-I 0 W/m 2,6 km/h (1 Bft)
18.09.2013 02:44 10,8 C 10,0 C 99 % 992,9 hPa 0,0 l/m 0 min 0 min 0,0 UV-I 0 W/m 0,0 km/h (0 Bft)
18.09.2013 02:46 10,8 C 10,0 C 99 % 992,9 hPa 0,0 l/m 0 min 0 min 0,0 UV-I 0 W/m 0,0 km/h (0 Bft)
18.09.2013 02:48 10,8 C 10,0 C 99 % 993,0 hPa 0,0 l/m 0 min 0 min 0,0 UV-I 0 W/m 0,0 km/h (0 Bft)
18.09.2013 02:50 10,8 C 10,0 C 99 % 993,0 hPa 0,0 l/m 0 min 0 min 0,0 UV-I 0 W/m 0,0 km/h (0 Bft)
18.09.2013 02:52 10,9 C 10,0 C 99 % 992,9 hPa 0,0 l/m 0 min 0 min 0,0 UV-I 0 W/m 0,0 km/h (0 Bft)
18.09.2013 02:54 10,9 C 10,0 C 99 % 992,9 hPa 0,0 l/m 0 min 0 min 0,0 UV-I 0 W/m 0,0 km/h (0 Bft)
18.09.2013 02:56 10,9 C 10,0 C 99 % 993,0 hPa 0,0 l/m 0 min 0 min 0,0 UV-I 0 W/m 0,0 km/h (0 Bft)
18.09.2013 02:58 10,9 C 10,0 C 99 % 993,0 hPa 0,0 l/m 0 min 0 min 0,0 UV-I 0 W/m 0,0 km/h (0 Bft)
18.09.2013 03:00 10,9 C 10,0 C 99 % 993,0 hPa 0,0 l/m 0 min 0 min 0,0 UV-I 0 W/m 0,0 km/h (0 Bft)
18.09.2013 03:02 10,9 C 10,0 C 99 % 993,0 hPa 0,0 l/m 0 min 0 min 0,0 UV-I 0 W/m 0,0 km/h (0 Bft)
18.09.2013 03:06 11,0 C 10,0 C 99 % 993,0 hPa 0,0 l/m 0 min 0 min 0,0 UV-I 0 W/m 0,0 km/h (0 Bft)
18.09.2013 03:08 11,0 C 10,0 C 99 % 993,0 hPa 0,0 l/m 0 min 0 min 0,0 UV-I 0 W/m 0,0 km/h (0 Bft)
18.09.2013 03:10 11,0 C 10,0 C 99 % 993,0 hPa 0,0 l/m 0 min 0 min 0,0 UV-I 0 W/m 2,6 km/h (1 Bft)
18.09.2013 03:12 11,1 C 10,0 C 99 % 993,1 hPa 0,0 l/m 0 min 0 min 0,0 UV-I 0 W/m 0,0 km/h (0 Bft)
18.09.2013 03:14 11,1 C 10,0 C 99 % 993,1 hPa 0,0 l/m 0 min 0 min 0,0 UV-I 0 W/m 0,0 km/h (0 Bft)
18.09.2013 03:16 11,1 C 10,0 C 99 % 993,1 hPa 0,0 l/m 0 min 0 min 0,0 UV-I 0 W/m 0,0 km/h (0 Bft)
18.09.2013 03:18 11,1 C 10,0 C 99 % 993,1 hPa 0,0 l/m 0 min 0 min 0,0 UV-I 0 W/m 0,0 km/h (0 Bft)
18.09.2013 03:20 11,1 C 10,0 C 99 % 993,0 hPa 0,0 l/m 0 min 0 min 0,0 UV-I 0 W/m 0,0 km/h (0 Bft)
18.09.2013 03:22 11,2 C 10,0 C 99 % 993,0 hPa 0,0 l/m 0 min 0 min 0,0 UV-I 0 W/m 0,0 km/h (0 Bft)
18.09.2013 03:24 11,2 C 10,0 C 99 % 993,0 hPa 0,0 l/m 0 min 0 min 0,0 UV-I 0 W/m 0,0 km/h (0 Bft)
18.09.2013 03:26 11,2 C 10,0 C 99 % 993,0 hPa 0,0 l/m 0 min 0 min 0,0 UV-I 0 W/m 0,0 km/h (0 Bft)
18.09.2013 03:28 11,2 C 10,0 C 99 % 993,1 hPa 0,0 l/m 0 min 0 min 0,0 UV-I 0 W/m 0,0 km/h (0 Bft)
18.09.2013 03:30 11,2 C 10,0 C 99 % 993,1 hPa 0,0 l/m 0 min 0 min 0,0 UV-I 0 W/m 2,6 km/h (1 Bft)
18.09.2013 03:32 11,2 C 10,0 C 99 % 993,2 hPa 0,0 l/m 0 min 0 min 0,0 UV-I 0 W/m 0,0 km/h (0 Bft)
18.09.2013 03:34 11,2 C 10,0 C 99 % 993,2 hPa 0,0 l/m 0 min 0 min 0,0 UV-I 0 W/m 0,0 km/h (0 Bft)
18.09.2013 03:36 11,3 C 10,6 C 99 % 993,2 hPa 0,0 l/m 0 min 0 min 0,0 UV-I 0 W/m 0,0 km/h (0 Bft)
18.09.2013 03:38 11,3 C 10,6 C 99 % 993,2 hPa 0,0 l/m 0 min 0 min 0,0 UV-I 0 W/m 0,0 km/h (0 Bft)
18.09.2013 03:40 11,3 C 10,6 C 99 % 993,2 hPa 0,0 l/m 0 min 0 min 0,0 UV-I 0 W/m 0,0 km/h (0 Bft)
18.09.2013 03:42 11,3 C 10,6 C 99 % 993,2 hPa 0,0 l/m 0 min 0 min 0,0 UV-I 0 W/m 7,7 km/h (2 Bft)
18.09.2013 03:44 11,4 C 10,6 C 99 % 993,1 hPa 0,0 l/m 0 min 0 min 0,0 UV-I 0 W/m 0,0 km/h (0 Bft)
18.09.2013 03:46 11,4 C 10,6 C 99 % 993,2 hPa 0,0 l/m 0 min 0 min 0,0 UV-I 0 W/m 2,6 km/h (1 Bft)
18.09.2013 03:48 11,4 C 10,6 C 99 % 993,2 hPa 0,0 l/m 0 min 0 min 0,0 UV-I 0 W/m 2,6 km/h (1 Bft)
18.09.2013 03:50 11,4 C 10,6 C 99 % 993,2 hPa 0,0 l/m 0 min 0 min 0,0 UV-I 0 W/m 0,0 km/h (0 Bft)
18.09.2013 03:52 11,5 C 10,6 C 99 % 993,3 hPa 0,0 l/m 0 min 0 min 0,0 UV-I 0 W/m 10,3 km/h (2 Bft)
18.09.2013 03:54 11,5 C 10,6 C 99 % 993,2 hPa 0,0 l/m 0 min 0 min 0,0 UV-I 0 W/m 10,3 km/h (2 Bft)
18.09.2013 03:56 11,5 C 10,6 C 99 % 993,3 hPa 0,0 l/m 0 min 0 min 0,0 UV-I 0 W/m 10,3 km/h (2 Bft)
18.09.2013 03:58 11,6 C 10,6 C 99 % 993,3 hPa 0,0 l/m 0 min 0 min 0,0 UV-I 0 W/m 0,0 km/h (0 Bft)
18.09.2013 04:00 11,6 C 10,6 C 99 % 993,3 hPa 0,0 l/m 0 min 0 min 0,0 UV-I 0 W/m 0,0 km/h (0 Bft)
18.09.2013 04:02 11,6 C 10,6 C 99 % 993,3 hPa 0,0 l/m 0 min 0 min 0,0 UV-I 0 W/m 2,6 km/h (1 Bft)
18.09.2013 04:06 11,6 C 10,6 C 99 % 993,5 hPa 0,0 l/m 0 min 0 min 0,0 UV-I 0 W/m 5,1 km/h (1 Bft)
18.09.2013 04:08 11,6 C 10,6 C 99 % 993,6 hPa 0,0 l/m 0 min 0 min 0,0 UV-I 0 W/m 5,1 km/h (1 Bft)
18.09.2013 04:10 11,6 C 10,6 C 99 % 993,6 hPa 0,0 l/m 0 min 0 min 0,0 UV-I 0 W/m 7,7 km/h (2 Bft)
18.09.2013 04:12 11,6 C 10,6 C 99 % 993,6 hPa 0,0 l/m 0 min 0 min 0,0 UV-I 0 W/m 2,6 km/h (1 Bft)
18.09.2013 04:14 11,6 C 10,6 C 99 % 993,6 hPa 0,0 l/m 0 min 0 min 0,0 UV-I 0 W/m 10,3 km/h (2 Bft)
18.09.2013 04:16 11,6 C 10,6 C 99 % 993,6 hPa 0,0 l/m 0 min 0 min 0,0 UV-I 0 W/m 0,0 km/h (0 Bft)
18.09.2013 04:18 11,6 C 10,6 C 99 % 993,6 hPa 0,0 l/m 0 min 0 min 0,0 UV-I 0 W/m 0,0 km/h (0 Bft)
18.09.2013 04:20 11,6 C 10,6 C 99 % 993,7 hPa 0,0 l/m 0 min 0 min 0,0 UV-I 0 W/m 7,7 km/h (2 Bft)
18.09.2013 04:22 11,6 C 10,6 C 99 % 993,7 hPa 0,0 l/m 0 min 0 min 0,0 UV-I 0 W/m 5,1 km/h (1 Bft)
18.09.2013 04:24 11,6 C 10,6 C 99 % 993,7 hPa 0,0 l/m 0 min 0 min 0,0 UV-I 0 W/m 2,6 km/h (1 Bft)
18.09.2013 04:26 11,6 C 10,6 C 99 % 993,8 hPa 0,0 l/m 0 min 0 min 0,0 UV-I 0 W/m 2,6 km/h (1 Bft)
18.09.2013 04:28 11,6 C 10,6 C 99 % 993,8 hPa 0,0 l/m 0 min 0 min 0,0 UV-I 0 W/m 0,0 km/h (0 Bft)
18.09.2013 04:30 11,6 C 10,6 C 99 % 993,9 hPa 0,0 l/m 0 min 0 min 0,0 UV-I 0 W/m 2,6 km/h (1 Bft)
18.09.2013 04:32 11,6 C 10,6 C 99 % 993,9 hPa 0,0 l/m 0 min 0 min 0,0 UV-I 0 W/m 0,0 km/h (0 Bft)
18.09.2013 04:34 11,6 C 10,6 C 99 % 993,9 hPa 0,0 l/m 0 min 0 min 0,0 UV-I 0 W/m 0,0 km/h (0 Bft)
18.09.2013 04:36 11,6 C 10,6 C 99 % 994,0 hPa 0,0 l/m 0 min 2 min 0,0 UV-I 0 W/m 0,0 km/h (0 Bft)
18.09.2013 04:38 11,6 C 10,6 C 99 % 994,0 hPa 0,0 l/m 0 min 2 min 0,0 UV-I 0 W/m 0,0 km/h (0 Bft)
18.09.2013 04:40 11,6 C 10,6 C 99 % 994,0 hPa 0,2 l/m 0 min 2 min 0,0 UV-I 0 W/m 12,9 km/h (3 Bft)
18.09.2013 04:42 11,6 C 10,6 C 99 % 994,0 hPa 0,0 l/m 0 min 2 min 0,0 UV-I 0 W/m 5,1 km/h (1 Bft)
18.09.2013 04:44 11,6 C 10,6 C 99 % 993,9 hPa 0,0 l/m 0 min 0 min 0,0 UV-I 0 W/m 0,0 km/h (0 Bft)
18.09.2013 04:46 11,6 C 10,6 C 99 % 993,9 hPa 0,0 l/m 0 min 0 min 0,0 UV-I 0 W/m 2,6 km/h (1 Bft)
18.09.2013 04:48 11,5 C 10,6 C 99 % 993,9 hPa 0,0 l/m 0 min 0 min 0,0 UV-I 0 W/m 0,0 km/h (0 Bft)
18.09.2013 04:50 11,5 C 10,6 C 99 % 993,8 hPa 0,0 l/m 0 min 0 min 0,0 UV-I 0 W/m 0,0 km/h (0 Bft)
18.09.2013 04:52 11,5 C 10,6 C 99 % 993,9 hPa 0,0 l/m 0 min 0 min 0,0 UV-I 0 W/m 0,0 km/h (0 Bft)
18.09.2013 04:54 11,5 C 10,6 C 99 % 993,9 hPa 0,0 l/m 0 min 0 min 0,0 UV-I 0 W/m 2,6 km/h (1 Bft)
18.09.2013 04:56 11,5 C 10,6 C 99 % 993,8 hPa 0,0 l/m 0 min 0 min 0,0 UV-I 0 W/m 0,0 km/h (0 Bft)
18.09.2013 04:58 11,4 C 10,6 C 99 % 993,9 hPa 0,0 l/m 0 min 0 min 0,0 UV-I 0 W/m 0,0 km/h (0 Bft)
18.09.2013 05:00 11,4 C 10,6 C 99 % 993,9 hPa 0,0 l/m 0 min 0 min 0,0 UV-I 0 W/m 0,0 km/h (0 Bft)
18.09.2013 05:02 11,4 C 10,6 C 99 % 994,0 hPa 0,0 l/m 0 min 0 min 0,0 UV-I 0 W/m 0,0 km/h (0 Bft)
18.09.2013 05:06 11,4 C 10,6 C 99 % 994,2 hPa 0,0 l/m 0 min 0 min 0,0 UV-I 0 W/m 0,0 km/h (0 Bft)
18.09.2013 05:08 11,4 C 10,6 C 99 % 994,2 hPa 0,0 l/m 0 min 0 min 0,0 UV-I 0 W/m 0,0 km/h (0 Bft)
18.09.2013 05:10 11,4 C 10,6 C 99 % 994,2 hPa 0,0 l/m 0 min 0 min 0,0 UV-I 0 W/m 2,6 km/h (1 Bft)
18.09.2013 05:12 11,4 C 10,6 C 99 % 994,2 hPa 0,0 l/m 0 min 0 min 0,0 UV-I 0 W/m 5,1 km/h (1 Bft)
18.09.2013 05:14 11,4 C 10,6 C 99 % 994,2 hPa 0,0 l/m 0 min 0 min 0,0 UV-I 0 W/m 7,7 km/h (2 Bft)
18.09.2013 05:16 11,4 C 10,6 C 99 % 994,2 hPa 0,0 l/m 0 min 0 min 0,0 UV-I 0 W/m 7,7 km/h (2 Bft)
18.09.2013 05:18 11,4 C 10,6 C 99 % 994,3 hPa 0,0 l/m 0 min 0 min 0,0 UV-I 0 W/m 5,1 km/h (1 Bft)
18.09.2013 05:20 11,4 C 10,6 C 99 % 994,3 hPa 0,0 l/m 0 min 0 min 0,0 UV-I 0 W/m 0,0 km/h (0 Bft)
18.09.2013 05:22 11,4 C 10,6 C 99 % 994,3 hPa 0,0 l/m 0 min 0 min 0,0 UV-I 0 W/m 12,9 km/h (3 Bft)
18.09.2013 05:24 11,3 C 10,6 C 99 % 994,3 hPa 0,0 l/m 0 min 0 min 0,0 UV-I 0 W/m 0,0 km/h (0 Bft)
18.09.2013 05:26 11,3 C 10,6 C 99 % 994,3 hPa 0,0 l/m 0 min 0 min 0,0 UV-I 0 W/m 0,0 km/h (0 Bft)
18.09.2013 05:28 11,3 C 10,6 C 99 % 994,3 hPa 0,0 l/m 0 min 0 min 0,0 UV-I 0 W/m 0,0 km/h (0 Bft)
18.09.2013 05:30 11,3 C 10,6 C 99 % 994,4 hPa 0,0 l/m 0 min 0 min 0,0 UV-I 0 W/m 0,0 km/h (0 Bft)
18.09.2013 05:32 11,3 C 10,0 C 99 % 994,4 hPa 0,0 l/m 0 min 0 min 0,0 UV-I 0 W/m 7,7 km/h (2 Bft)
18.09.2013 05:34 11,3 C 10,0 C 99 % 994,4 hPa 0,0 l/m 0 min 0 min 0,0 UV-I 0 W/m 2,6 km/h (1 Bft)
18.09.2013 05:36 11,3 C 10,0 C 99 % 994,4 hPa 0,0 l/m 0 min 0 min 0,0 UV-I 0 W/m 0,0 km/h (0 Bft)
18.09.2013 05:38 11,3 C 10,0 C 99 % 994,5 hPa 0,0 l/m 0 min 0 min 0,0 UV-I 0 W/m 0,0 km/h (0 Bft)
18.09.2013 05:40 11,3 C 10,0 C 99 % 994,5 hPa 0,0 l/m 0 min 0 min 0,0 UV-I 0 W/m 0,0 km/h (0 Bft)
18.09.2013 05:42 11,3 C 10,0 C 99 % 994,5 hPa 0,0 l/m 0 min 0 min 0,0 UV-I 0 W/m 0,0 km/h (0 Bft)
18.09.2013 05:44 11,3 C 10,0 C 99 % 994,5 hPa 0,0 l/m 0 min 0 min 0,0 UV-I 0 W/m 0,0 km/h (0 Bft)
18.09.2013 05:46 11,3 C 10,0 C 99 % 994,6 hPa 0,0 l/m 0 min 0 min 0,0 UV-I 0 W/m 0,0 km/h (0 Bft)
18.09.2013 05:48 11,3 C 10,0 C 99 % 994,6 hPa 0,0 l/m 0 min 2 min 0,0 UV-I 0 W/m 0,0 km/h (0 Bft)
18.09.2013 05:50 11,3 C 10,0 C 99 % 994,7 hPa 0,0 l/m 0 min 2 min 0,0 UV-I 0 W/m 0,0 km/h (0 Bft)
18.09.2013 05:52 11,3 C 10,0 C 99 % 994,7 hPa 0,0 l/m 0 min 0 min 0,0 UV-I 0 W/m 5,1 km/h (1 Bft)
18.09.2013 05:54 11,2 C 10,0 C 99 % 994,8 hPa 0,0 l/m 0 min 0 min 0,0 UV-I 0 W/m 0,0 km/h (0 Bft)
18.09.2013 05:56 11,3 C 10,0 C 99 % 994,8 hPa 0,0 l/m 0 min 2 min 0,0 UV-I 0 W/m 0,0 km/h (0 Bft)
18.09.2013 05:58 11,2 C 10,0 C 99 % 994,8 hPa 0,0 l/m 0 min 2 min 0,0 UV-I 0 W/m 0,0 km/h (0 Bft)
18.09.2013 06:00 11,2 C 10,0 C 99 % 994,8 hPa 0,0 l/m 0 min 0 min 0,0 UV-I 0 W/m 0,0 km/h (0 Bft)
18.09.2013 06:02 11,2 C 10,0 C 99 % 994,8 hPa 0,0 l/m 0 min 0 min 0,0 UV-I 0 W/m 0,0 km/h (0 Bft)
18.09.2013 06:06 11,2 C 10,0 C 99 % 994,8 hPa 0,0 l/m 0 min 2 min 0,0 UV-I 0 W/m 0,0 km/h (0 Bft)
18.09.2013 06:08 11,2 C 10,0 C 99 % 994,8 hPa 0,0 l/m 0 min 2 min 0,0 UV-I 0 W/m 0,0 km/h (0 Bft)
18.09.2013 06:10 11,2 C 10,0 C 99 % 994,8 hPa 0,0 l/m 0 min 2 min 0,0 UV-I 0 W/m 0,0 km/h (0 Bft)
18.09.2013 06:12 11,2 C 10,0 C 99 % 994,9 hPa 0,0 l/m 0 min 2 min 0,0 UV-I 0 W/m 0,0 km/h (0 Bft)
18.09.2013 06:14 11,2 C 10,0 C 99 % 994,9 hPa 0,0 l/m 0 min 2 min 0,0 UV-I 0 W/m 0,0 km/h (0 Bft)
18.09.2013 06:16 11,2 C 10,0 C 99 % 994,9 hPa 0,0 l/m 0 min 2 min 0,0 UV-I 0 W/m 5,1 km/h (1 Bft)
18.09.2013 06:18 11,2 C 10,0 C 99 % 994,9 hPa 0,0 l/m 0 min 2 min 0,0 UV-I 0 W/m 0,0 km/h (0 Bft)
18.09.2013 06:20 11,2 C 10,0 C 99 % 994,9 hPa 0,2 l/m 0 min 2 min 0,0 UV-I 0 W/m 0,0 km/h (0 Bft)
18.09.2013 06:22 11,1 C 10,0 C 99 % 994,9 hPa 0,0 l/m 0 min 2 min 0,0 UV-I 0 W/m 0,0 km/h (0 Bft)
18.09.2013 06:24 11,1 C 10,0 C 99 % 994,9 hPa 0,0 l/m 0 min 2 min 0,0 UV-I 0 W/m 2,6 km/h (1 Bft)
18.09.2013 06:26 11,1 C 10,0 C 99 % 994,9 hPa 0,0 l/m 0 min 2 min 0,0 UV-I 0 W/m 0,0 km/h (0 Bft)
18.09.2013 06:28 11,1 C 10,0 C 99 % 994,9 hPa 0,0 l/m 0 min 2 min 0,0 UV-I 0 W/m 0,0 km/h (0 Bft)
18.09.2013 06:30 11,1 C 10,0 C 99 % 994,9 hPa 0,0 l/m 0 min 2 min 0,0 UV-I 0 W/m 0,0 km/h (0 Bft)
18.09.2013 06:32 11,1 C 10,0 C 99 % 994,9 hPa 0,0 l/m 0 min 2 min 0,0 UV-I 0 W/m 0,0 km/h (0 Bft)
18.09.2013 06:34 11,1 C 10,0 C 99 % 994,9 hPa 0,0 l/m 0 min 0 min 0,0 UV-I 0 W/m 0,0 km/h (0 Bft)
18.09.2013 06:36 11,1 C 10,0 C 99 % 995,1 hPa 0,0 l/m 0 min 2 min 0,0 UV-I 0 W/m 0,0 km/h (0 Bft)
18.09.2013 06:38 11,1 C 10,0 C 99 % 995,0 hPa 0,0 l/m 0 min 2 min 0,0 UV-I 0 W/m 0,0 km/h (0 Bft)
18.09.2013 06:40 11,1 C 10,0 C 99 % 995,1 hPa 0,0 l/m 0 min 0 min 0,0 UV-I 0 W/m 0,0 km/h (0 Bft)
18.09.2013 06:42 11,1 C 10,0 C 99 % 995,1 hPa 0,0 l/m 0 min 0 min 0,0 UV-I 0 W/m 0,0 km/h (0 Bft)
18.09.2013 06:44 11,1 C 10,0 C 99 % 995,2 hPa 0,0 l/m 0 min 2 min 0,0 UV-I 0 W/m 0,0 km/h (0 Bft)
18.09.2013 06:46 11,1 C 10,0 C 99 % 995,2 hPa 0,0 l/m 0 min 2 min 0,0 UV-I 0 W/m 0,0 km/h (0 Bft)
18.09.2013 06:48 11,1 C 10,0 C 99 % 995,2 hPa 0,0 l/m 0 min 2 min 0,0 UV-I 0 W/m 0,0 km/h (0 Bft)
18.09.2013 06:50 11,0 C 10,0 C 99 % 995,2 hPa 0,0 l/m 0 min 2 min 0,0 UV-I 0 W/m 0,0 km/h (0 Bft)
18.09.2013 06:52 11,0 C 10,0 C 99 % 995,2 hPa 0,0 l/m 0 min 2 min 0,0 UV-I 0 W/m 0,0 km/h (0 Bft)
18.09.2013 06:54 11,0 C 10,0 C 99 % 995,2 hPa 0,0 l/m 0 min 2 min 0,0 UV-I 0 W/m 0,0 km/h (0 Bft)
18.09.2013 06:56 11,0 C 10,0 C 99 % 995,2 hPa 0,0 l/m 0 min 0 min 0,0 UV-I 0 W/m 0,0 km/h (0 Bft)
18.09.2013 06:58 11,0 C 10,0 C 99 % 995,3 hPa 0,0 l/m 0 min 2 min 0,0 UV-I 0 W/m 0,0 km/h (0 Bft)
18.09.2013 07:00 11,0 C 10,0 C 99 % 995,3 hPa 0,0 l/m 0 min 2 min 0,0 UV-I 0 W/m 0,0 km/h (0 Bft)
18.09.2013 07:02 11,0 C 10,0 C 99 % 995,4 hPa 0,0 l/m 0 min 2 min 0,0 UV-I 0 W/m 0,0 km/h (0 Bft)
18.09.2013 07:06 10,9 C 10,0 C 99 % 995,4 hPa 0,0 l/m 0 min 0 min 0,0 UV-I 0 W/m 5,1 km/h (1 Bft)
18.09.2013 07:08 10,9 C 10,0 C 99 % 995,4 hPa 0,0 l/m 0 min 0 min 0,0 UV-I 0 W/m 0,0 km/h (0 Bft)
18.09.2013 07:10 10,9 C 10,0 C 99 % 995,5 hPa 0,0 l/m 0 min 2 min 0,0 UV-I 0 W/m 2,6 km/h (1 Bft)
18.09.2013 07:12 10,9 C 10,0 C 99 % 995,5 hPa 0,0 l/m 0 min 0 min 0,0 UV-I 0 W/m 0,0 km/h (0 Bft)
18.09.2013 07:14 10,9 C 10,0 C 99 % 995,6 hPa 0,0 l/m 0 min 2 min 0,0 UV-I 0 W/m 0,0 km/h (0 Bft)
18.09.2013 07:16 10,9 C 10,0 C 99 % 995,6 hPa 0,0 l/m 0 min 0 min 0,0 UV-I 0 W/m 7,7 km/h (2 Bft)
18.09.2013 07:18 10,9 C 10,0 C 99 % 995,6 hPa 0,0 l/m 0 min 0 min 0,0 UV-I 0 W/m 2,6 km/h (1 Bft)
18.09.2013 07:20 10,9 C 10,0 C 99 % 995,6 hPa 0,0 l/m 0 min 0 min 0,0 UV-I 0 W/m 0,0 km/h (0 Bft)
18.09.2013 07:22 10,9 C 10,0 C 99 % 995,7 hPa 0,0 l/m 0 min 0 min 0,0 UV-I 0 W/m 0,0 km/h (0 Bft)
18.09.2013 07:24 10,9 C 10,0 C 99 % 995,8 hPa 0,0 l/m 0 min 0 min 0,0 UV-I 0 W/m 0,0 km/h (0 Bft)
18.09.2013 07:26 10,9 C 10,0 C 99 % 995,8 hPa 0,0 l/m 0 min 0 min 0,0 UV-I 0 W/m 0,0 km/h (0 Bft)
18.09.2013 07:28 10,9 C 10,0 C 99 % 995,8 hPa 0,0 l/m 0 min 0 min 0,0 UV-I 5 W/m 2,6 km/h (1 Bft)
18.09.2013 07:30 10,9 C 10,0 C 99 % 995,8 hPa 0,0 l/m 0 min 0 min 0,0 UV-I 5 W/m 0,0 km/h (0 Bft)
18.09.2013 07:32 10,9 C 10,0 C 99 % 995,8 hPa 0,0 l/m 0 min 0 min 0,0 UV-I 5 W/m 0,0 km/h (0 Bft)
18.09.2013 07:34 10,9 C 10,0 C 99 % 995,8 hPa 0,0 l/m 0 min 0 min 0,0 UV-I 5 W/m 0,0 km/h (0 Bft)
18.09.2013 07:36 10,9 C 10,0 C 99 % 995,9 hPa 0,0 l/m 0 min 2 min 0,0 UV-I 7 W/m 0,0 km/h (0 Bft)
18.09.2013 07:38 10,9 C 10,0 C 99 % 995,9 hPa 0,0 l/m 0 min 2 min 0,0 UV-I 7 W/m 0,0 km/h (0 Bft)
18.09.2013 07:40 10,8 C 10,0 C 99 % 995,9 hPa 0,0 l/m 0 min 0 min 0,0 UV-I 7 W/m 2,6 km/h (1 Bft)
18.09.2013 07:42 10,8 C 10,0 C 99 % 995,9 hPa 0,0 l/m 0 min 0 min 0,0 UV-I 9 W/m 0,0 km/h (0 Bft)
18.09.2013 07:44 10,8 C 10,0 C 99 % 995,9 hPa 0,0 l/m 0 min 0 min 0,0 UV-I 9 W/m 0,0 km/h (0 Bft)
18.09.2013 07:46 10,8 C 10,0 C 99 % 995,9 hPa 0,0 l/m 0 min 0 min 0,0 UV-I 11 W/m 0,0 km/h (0 Bft)
18.09.2013 07:48 10,8 C 10,0 C 99 % 996,0 hPa 0,0 l/m 0 min 0 min 0,0 UV-I 11 W/m 0,0 km/h (0 Bft)
18.09.2013 07:50 10,8 C 10,0 C 99 % 996,1 hPa 0,0 l/m 0 min 0 min 0,0 UV-I 12 W/m 0,0 km/h (0 Bft)
18.09.2013 07:52 10,8 C 10,0 C 99 % 996,0 hPa 0,0 l/m 0 min 0 min 0,0 UV-I 14 W/m 0,0 km/h (0 Bft)
18.09.2013 07:54 10,8 C 10,0 C 99 % 996,1 hPa 0,0 l/m 0 min 0 min 0,0 UV-I 16 W/m 0,0 km/h (0 Bft)
18.09.2013 07:56 10,8 C 10,0 C 99 % 996,1 hPa 0,0 l/m 0 min 0 min 0,0 UV-I 18 W/m 0,0 km/h (0 Bft)
18.09.2013 07:58 10,8 C 10,0 C 99 % 996,2 hPa 0,0 l/m 0 min 0 min 0,0 UV-I 19 W/m 0,0 km/h (0 Bft)
18.09.2013 08:00 10,8 C 10,0 C 99 % 996,2 hPa 0,0 l/m 0 min 0 min 0,0 UV-I 21 W/m 0,0 km/h (0 Bft)
18.09.2013 08:02 10,8 C 10,0 C 99 % 996,3 hPa 0,0 l/m 0 min 0 min 0,0 UV-I 21 W/m 0,0 km/h (0 Bft)
18.09.2013 08:06 10,8 C 10,0 C 99 % 996,3 hPa 0,0 l/m 0 min 0 min 0,0 UV-I 19 W/m 0,0 km/h (0 Bft)
18.09.2013 08:08 10,9 C 10,0 C 99 % 996,4 hPa 0,0 l/m 0 min 0 min 0,0 UV-I 21 W/m 0,0 km/h (0 Bft)
18.09.2013 08:10 10,9 C 10,0 C 99 % 996,4 hPa 0,0 l/m 0 min 0 min 0,0 UV-I 23 W/m 2,6 km/h (1 Bft)
18.09.2013 08:12 10,9 C 10,0 C 99 % 996,4 hPa 0,0 l/m 0 min 0 min 0,0 UV-I 25 W/m 0,0 km/h (0 Bft)
18.09.2013 08:14 10,9 C 10,0 C 99 % 996,5 hPa 0,0 l/m 0 min 0 min 0,0 UV-I 25 W/m 0,0 km/h (0 Bft)
18.09.2013 08:16 10,9 C 10,0 C 99 % 996,4 hPa 0,0 l/m 0 min 0 min 0,0 UV-I 26 W/m 0,0 km/h (0 Bft)
18.09.2013 08:18 10,9 C 10,0 C 99 % 996,5 hPa 0,0 l/m 0 min 0 min 0,0 UV-I 28 W/m 0,0 km/h (0 Bft)
18.09.2013 08:20 10,9 C 10,0 C 99 % 996,4 hPa 0,0 l/m 0 min 0 min 0,0 UV-I 30 W/m 2,6 km/h (1 Bft)
18.09.2013 08:22 10,8 C 10,0 C 99 % 996,4 hPa 0,0 l/m 0 min 0 min 0,0 UV-I 28 W/m 2,6 km/h (1 Bft)
18.09.2013 08:24 10,8 C 10,0 C 99 % 996,5 hPa 0,0 l/m 0 min 0 min 0,0 UV-I 28 W/m 2,6 km/h (1 Bft)
18.09.2013 08:26 10,8 C 10,0 C 99 % 996,6 hPa 0,0 l/m 0 min 0 min 0,0 UV-I 28 W/m 0,0 km/h (0 Bft)
18.09.2013 08:28 10,8 C 10,0 C 99 % 996,6 hPa 0,0 l/m 0 min 0 min 0,0 UV-I 28 W/m 0,0 km/h (0 Bft)
18.09.2013 08:30 10,8 C 10,0 C 99 % 996,6 hPa 0,0 l/m 0 min 0 min 0,0 UV-I 30 W/m 5,1 km/h (1 Bft)
18.09.2013 08:32 10,8 C 10,0 C 99 % 996,6 hPa 0,0 l/m 0 min 2 min 0,0 UV-I 32 W/m 0,0 km/h (0 Bft)
18.09.2013 08:34 10,8 C 10,0 C 99 % 996,6 hPa 0,0 l/m 0 min 2 min 0,0 UV-I 32 W/m 0,0 km/h (0 Bft)
18.09.2013 08:36 10,8 C 10,0 C 99 % 996,6 hPa 0,0 l/m 0 min 0 min 0,0 UV-I 32 W/m 0,0 km/h (0 Bft)
18.09.2013 08:38 10,8 C 10,0 C 99 % 996,6 hPa 0,0 l/m 0 min 0 min 0,0 UV-I 33 W/m 0,0 km/h (0 Bft)
18.09.2013 08:40 10,9 C 10,0 C 99 % 996,6 hPa 0,0 l/m 0 min 0 min 0,0 UV-I 33 W/m 0,0 km/h (0 Bft)
18.09.2013 08:42 10,9 C 10,0 C 99 % 996,7 hPa 0,0 l/m 0 min 0 min 0,0 UV-I 33 W/m 7,7 km/h (2 Bft)
18.09.2013 08:44 10,8 C 10,0 C 99 % 996,7 hPa 0,0 l/m 0 min 0 min 0,0 UV-I 35 W/m 0,0 km/h (0 Bft)
18.09.2013 08:46 10,9 C 10,0 C 99 % 996,8 hPa 0,0 l/m 0 min 0 min 0,0 UV-I 39 W/m 7,7 km/h (2 Bft)
18.09.2013 08:48 10,8 C 10,0 C 99 % 996,7 hPa 0,0 l/m 0 min 0 min 0,0 UV-I 40 W/m 0,0 km/h (0 Bft)
18.09.2013 08:50 10,8 C 10,0 C 99 % 996,7 hPa 0,0 l/m 0 min 0 min 0,0 UV-I 39 W/m 0,0 km/h (0 Bft)
18.09.2013 08:52 10,9 C 10,0 C 99 % 996,7 hPa 0,0 l/m 0 min 0 min 0,0 UV-I 40 W/m 2,6 km/h (1 Bft)
18.09.2013 08:54 10,9 C 10,0 C 99 % 996,8 hPa 0,0 l/m 0 min 0 min 0,0 UV-I 42 W/m 5,1 km/h (1 Bft)
18.09.2013 08:56 10,8 C 10,0 C 99 % 996,8 hPa 0,0 l/m 0 min 0 min 0,0 UV-I 46 W/m 0,0 km/h (0 Bft)
18.09.2013 08:58 10,8 C 10,0 C 99 % 996,9 hPa 0,0 l/m 0 min 0 min 0,0 UV-I 44 W/m 0,0 km/h (0 Bft)
18.09.2013 09:00 10,8 C 10,0 C 99 % 997,0 hPa 0,0 l/m 0 min 0 min 0,0 UV-I 39 W/m 2,6 km/h (1 Bft)
18.09.2013 09:02 10,8 C 10,0 C 99 % 997,0 hPa 0,0 l/m 0 min 0 min 0,0 UV-I 46 W/m 0,0 km/h (0 Bft)
18.09.2013 09:06 10,8 C 10,0 C 99 % 997,1 hPa 0,0 l/m 0 min 0 min 0,0 UV-I 42 W/m 0,0 km/h (0 Bft)
18.09.2013 09:08 10,8 C 10,0 C 99 % 997,1 hPa 0,0 l/m 0 min 0 min 0,0 UV-I 44 W/m 0,0 km/h (0 Bft)
18.09.2013 09:10 10,9 C 10,0 C 99 % 997,2 hPa 0,0 l/m 0 min 0 min 0,0 UV-I 51 W/m 0,0 km/h (0 Bft)
18.09.2013 09:12 10,9 C 10,0 C 99 % 997,2 hPa 0,0 l/m 0 min 0 min 0,0 UV-I 54 W/m 0,0 km/h (0 Bft)
18.09.2013 09:14 10,9 C 10,0 C 99 % 997,2 hPa 0,0 l/m 0 min 0 min 0,0 UV-I 47 W/m 0,0 km/h (0 Bft)
18.09.2013 09:16 10,9 C 10,0 C 99 % 997,2 hPa 0,0 l/m 0 min 0 min 0,0 UV-I 46 W/m 0,0 km/h (0 Bft)
18.09.2013 09:18 10,9 C 10,0 C 99 % 997,3 hPa 0,0 l/m 0 min 0 min 0,0 UV-I 49 W/m 0,0 km/h (0 Bft)
18.09.2013 09:20 10,9 C 10,0 C 99 % 997,3 hPa 0,0 l/m 0 min 0 min 0,0 UV-I 49 W/m 2,6 km/h (1 Bft)
18.09.2013 09:22 10,9 C 10,0 C 99 % 997,3 hPa 0,0 l/m 0 min 0 min 0,0 UV-I 53 W/m 0,0 km/h (0 Bft)
18.09.2013 09:24 10,9 C 10,0 C 99 % 997,3 hPa 0,0 l/m 0 min 0 min 0,0 UV-I 56 W/m 0,0 km/h (0 Bft)
18.09.2013 09:26 10,9 C 10,0 C 99 % 997,4 hPa 0,0 l/m 0 min 0 min 0,0 UV-I 56 W/m 2,6 km/h (1 Bft)
18.09.2013 09:28 10,9 C 10,0 C 99 % 997,5 hPa 0,0 l/m 0 min 0 min 0,0 UV-I 54 W/m 0,0 km/h (0 Bft)
18.09.2013 09:30 10,9 C 10,0 C 99 % 997,5 hPa 0,0 l/m 0 min 0 min 0,0 UV-I 47 W/m 0,0 km/h (0 Bft)
18.09.2013 09:32 10,9 C 10,0 C 99 % 997,5 hPa 0,0 l/m 0 min 0 min 0,0 UV-I 47 W/m 0,0 km/h (0 Bft)
18.09.2013 09:34 10,9 C 10,0 C 99 % 997,6 hPa 0,0 l/m 0 min 0 min 0,0 UV-I 46 W/m 0,0 km/h (0 Bft)
18.09.2013 09:36 11,1 C 10,0 C 99 % 997,6 hPa 0,0 l/m 0 min 0 min 0,0 UV-I 37 W/m 0,0 km/h (0 Bft)
18.09.2013 09:38 11,1 C 10,0 C 99 % 997,6 hPa 0,0 l/m 0 min 0 min 0,0 UV-I 42 W/m 0,0 km/h (0 Bft)
18.09.2013 09:40 11,1 C 10,0 C 99 % 997,5 hPa 0,0 l/m 0 min 0 min 0,0 UV-I 46 W/m 5,1 km/h (1 Bft)
18.09.2013 09:42 11,1 C 10,0 C 99 % 997,6 hPa 0,0 l/m 0 min 0 min 0,0 UV-I 51 W/m 0,0 km/h (0 Bft)
18.09.2013 09:44 11,1 C 10,0 C 99 % 997,6 hPa 0,0 l/m 0 min 0 min 0,0 UV-I 56 W/m 0,0 km/h (0 Bft)
18.09.2013 09:46 11,0 C 10,0 C 99 % 997,6 hPa 0,0 l/m 0 min 0 min 0,0 UV-I 62 W/m 0,0 km/h (0 Bft)
18.09.2013 09:48 11,0 C 10,0 C 99 % 997,6 hPa 0,0 l/m 0 min 0 min 0,0 UV-I 65 W/m 0,0 km/h (0 Bft)
18.09.2013 09:50 11,0 C 10,6 C 99 % 997,7 hPa 0,0 l/m 0 min 0 min 0,0 UV-I 67 W/m 0,0 km/h (0 Bft)
18.09.2013 09:52 11,1 C 10,6 C 99 % 997,7 hPa 0,0 l/m 0 min 0 min 0,0 UV-I 67 W/m 0,0 km/h (0 Bft)
18.09.2013 09:54 11,1 C 10,6 C 99 % 997,6 hPa 0,0 l/m 0 min 0 min 0,0 UV-I 63 W/m 0,0 km/h (0 Bft)
18.09.2013 09:56 11,0 C 10,0 C 99 % 997,7 hPa 0,0 l/m 0 min 0 min 0,0 UV-I 62 W/m 0,0 km/h (0 Bft)
18.09.2013 09:58 11,0 C 10,0 C 99 % 997,7 hPa 0,0 l/m 0 min 0 min 0,0 UV-I 60 W/m 0,0 km/h (0 Bft)
18.09.2013 10:00 11,0 C 10,0 C 99 % 997,7 hPa 0,0 l/m 0 min 0 min 0,0 UV-I 63 W/m 0,0 km/h (0 Bft)
18.09.2013 10:02 11,1 C 10,6 C 99 % 997,8 hPa 0,0 l/m 0 min 0 min 0,0 UV-I 67 W/m 0,0 km/h (0 Bft)
18.09.2013 10:06 11,1 C 10,6 C 99 % 997,9 hPa 0,0 l/m 0 min 2 min 0,0 UV-I 69 W/m 0,0 km/h (0 Bft)
18.09.2013 10:08 11,2 C 10,6 C 99 % 997,8 hPa 0,0 l/m 0 min 0 min 0,0 UV-I 70 W/m 0,0 km/h (0 Bft)
18.09.2013 10:10 11,2 C 10,6 C 99 % 997,9 hPa 0,0 l/m 0 min 0 min 0,0 UV-I 72 W/m 0,0 km/h (0 Bft)
18.09.2013 10:12 11,1 C 10,6 C 99 % 998,0 hPa 0,0 l/m 0 min 0 min 0,0 UV-I 76 W/m 0,0 km/h (0 Bft)
18.09.2013 10:14 11,1 C 10,6 C 99 % 998,0 hPa 0,0 l/m 0 min 0 min 0,0 UV-I 81 W/m 7,7 km/h (2 Bft)
18.09.2013 10:16 11,1 C 10,6 C 99 % 998,1 hPa 0,0 l/m 0 min 0 min 0,0 UV-I 84 W/m 0,0 km/h (0 Bft)
18.09.2013 10:18 11,2 C 10,6 C 99 % 998,1 hPa 0,0 l/m 0 min 0 min 0,0 UV-I 97 W/m 0,0 km/h (0 Bft)
18.09.2013 10:20 11,2 C 10,6 C 99 % 998,1 hPa 0,0 l/m 0 min 0 min 0,0 UV-I 102 W/m 0,0 km/h (0 Bft)
18.09.2013 10:22 11,3 C 10,6 C 99 % 998,1 hPa 0,0 l/m 0 min 0 min 0,0 UV-I 98 W/m 0,0 km/h (0 Bft)
18.09.2013 10:24 11,3 C 10,6 C 99 % 998,2 hPa 0,0 l/m 0 min 0 min 0,0 UV-I 102 W/m 0,0 km/h (0 Bft)
18.09.2013 10:26 11,3 C 10,6 C 99 % 998,3 hPa 0,0 l/m 0 min 0 min 0,0 UV-I 109 W/m 0,0 km/h (0 Bft)
18.09.2013 10:28 11,3 C 10,6 C 98 % 998,3 hPa 0,0 l/m 0 min 0 min 0,0 UV-I 116 W/m 0,0 km/h (0 Bft)
18.09.2013 10:30 11,4 C 10,6 C 98 % 998,3 hPa 0,0 l/m 0 min 0 min 0,0 UV-I 123 W/m 2,6 km/h (1 Bft)
18.09.2013 10:32 11,4 C 10,6 C 98 % 998,3 hPa 0,0 l/m 0 min 0 min 0,0 UV-I 123 W/m 0,0 km/h (0 Bft)
18.09.2013 10:34 11,4 C 10,6 C 99 % 998,3 hPa 0,0 l/m 0 min 0 min 0,0 UV-I 116 W/m 5,1 km/h (1 Bft)
18.09.2013 10:36 11,4 C 10,6 C 99 % 998,3 hPa 0,0 l/m 0 min 0 min 0,0 UV-I 104 W/m 0,0 km/h (0 Bft)
18.09.2013 10:38 11,4 C 10,6 C 98 % 998,3 hPa 0,0 l/m 0 min 0 min 0,0 UV-I 95 W/m 0,0 km/h (0 Bft)
18.09.2013 10:40 11,4 C 10,6 C 98 % 998,4 hPa 0,0 l/m 0 min 0 min 0,0 UV-I 83 W/m 0,0 km/h (0 Bft)
18.09.2013 10:42 11,4 C 10,6 C 98 % 998,5 hPa 0,0 l/m 0 min 0 min 0,0 UV-I 93 W/m 0,0 km/h (0 Bft)
18.09.2013 10:44 11,5 C 10,6 C 98 % 998,5 hPa 0,0 l/m 0 min 0 min 0,0 UV-I 105 W/m 0,0 km/h (0 Bft)
18.09.2013 10:46 11,4 C 10,6 C 98 % 998,5 hPa 0,0 l/m 0 min 0 min 0,0 UV-I 123 W/m 2,6 km/h (1 Bft)
18.09.2013 10:48 11,4 C 10,6 C 98 % 998,5 hPa 0,0 l/m 0 min 0 min 0,0 UV-I 121 W/m 0,0 km/h (0 Bft)
18.09.2013 10:50 11,6 C 11,1 C 98 % 998,5 hPa 0,0 l/m 0 min 0 min 0,0 UV-I 141 W/m 0,0 km/h (0 Bft)
18.09.2013 10:52 11,7 C 11,1 C 98 % 998,5 hPa 0,0 l/m 0 min 0 min 0,0 UV-I 148 W/m 0,0 km/h (0 Bft)
18.09.2013 10:54 11,7 C 11,1 C 98 % 998,5 hPa 0,0 l/m 0 min 0 min 0,0 UV-I 144 W/m 0,0 km/h (0 Bft)
18.09.2013 10:56 11,7 C 11,1 C 98 % 998,6 hPa 0,0 l/m 0 min 0 min 0,0 UV-I 151 W/m 0,0 km/h (0 Bft)
18.09.2013 10:58 11,7 C 11,1 C 98 % 998,6 hPa 0,0 l/m 0 min 0 min 0,0 UV-I 156 W/m 0,0 km/h (0 Bft)
18.09.2013 11:00 11,8 C 11,1 C 98 % 998,6 hPa 0,0 l/m 0 min 0 min 0,0 UV-I 160 W/m 2,6 km/h (1 Bft)
18.09.2013 11:02 11,7 C 11,1 C 98 % 998,7 hPa 0,0 l/m 0 min 0 min 0,0 UV-I 163 W/m 5,1 km/h (1 Bft)
18.09.2013 11:06 11,8 C 11,1 C 97 % 998,7 hPa 0,0 l/m 0 min 0 min 0,5 UV-I 179 W/m 5,1 km/h (1 Bft)
18.09.2013 11:08 11,8 C 11,1 C 97 % 998,7 hPa 0,0 l/m 0 min 0 min 0,5 UV-I 195 W/m 5,1 km/h (1 Bft)
18.09.2013 11:10 11,8 C 11,1 C 97 % 998,7 hPa 0,0 l/m 0 min 0 min 0,0 UV-I 174 W/m 0,0 km/h (0 Bft)
18.09.2013 11:12 12,0 C 11,1 C 97 % 998,9 hPa 0,0 l/m 0 min 0 min 0,0 UV-I 144 W/m 2,6 km/h (1 Bft)
18.09.2013 11:14 12,1 C 11,7 C 97 % 998,8 hPa 0,0 l/m 0 min 0 min 0,0 UV-I 137 W/m 0,0 km/h (0 Bft)
18.09.2013 11:16 12,0 C 11,1 C 96 % 998,8 hPa 0,0 l/m 0 min 0 min 0,0 UV-I 116 W/m 0,0 km/h (0 Bft)
18.09.2013 11:18 12,0 C 11,1 C 96 % 998,8 hPa 0,0 l/m 0 min 0 min 0,0 UV-I 114 W/m 7,7 km/h (2 Bft)
18.09.2013 11:20 12,1 C 11,1 C 96 % 998,9 hPa 0,0 l/m 0 min 0 min 0,0 UV-I 149 W/m 0,0 km/h (0 Bft)
18.09.2013 11:22 12,1 C 11,1 C 96 % 998,9 hPa 0,0 l/m 0 min 0 min 0,0 UV-I 146 W/m 0,0 km/h (0 Bft)
18.09.2013 11:24 12,2 C 11,7 C 96 % 998,9 hPa 0,0 l/m 0 min 0 min 0,0 UV-I 167 W/m 7,7 km/h (2 Bft)
18.09.2013 11:26 12,2 C 11,7 C 96 % 999,0 hPa 0,0 l/m 0 min 0 min 0,5 UV-I 186 W/m 5,1 km/h (1 Bft)
18.09.2013 11:28 12,3 C 11,7 C 96 % 999,0 hPa 0,0 l/m 0 min 0 min 0,6 UV-I 209 W/m 5,1 km/h (1 Bft)
18.09.2013 11:30 12,3 C 11,7 C 96 % 999,0 hPa 0,0 l/m 0 min 0 min 0,7 UV-I 216 W/m 2,6 km/h (1 Bft)
18.09.2013 11:32 12,3 C 11,7 C 96 % 999,0 hPa 0,0 l/m 0 min 0 min 0,7 UV-I 214 W/m 5,1 km/h (1 Bft)
18.09.2013 11:34 12,3 C 11,7 C 95 % 999,0 hPa 0,0 l/m 0 min 0 min 0,7 UV-I 218 W/m 10,3 km/h (2 Bft)
18.09.2013 11:36 12,3 C 11,7 C 95 % 999,0 hPa 0,0 l/m 0 min 0 min 0,8 UV-I 234 W/m 2,6 km/h (1 Bft)
18.09.2013 11:38 12,4 C 11,7 C 95 % 999,0 hPa 0,0 l/m 0 min 0 min 0,9 UV-I 248 W/m 10,3 km/h (2 Bft)
18.09.2013 11:40 12,5 C 12,2 C 94 % 999,0 hPa 0,0 l/m 0 min 0 min 0,8 UV-I 232 W/m 0,0 km/h (0 Bft)
18.09.2013 11:42 12,5 C 12,2 C 94 % 999,0 hPa 0,0 l/m 0 min 0 min 0,8 UV-I 229 W/m 5,1 km/h (1 Bft)
18.09.2013 11:44 12,6 C 12,2 C 94 % 999,0 hPa 0,0 l/m 0 min 0 min 0,8 UV-I 225 W/m 5,1 km/h (1 Bft)
18.09.2013 11:46 12,7 C 12,2 C 94 % 998,9 hPa 0,0 l/m 0 min 0 min 0,8 UV-I 218 W/m 0,0 km/h (0 Bft)
18.09.2013 11:48 12,6 C 12,2 C 94 % 999,0 hPa 0,0 l/m 0 min 0 min 0,8 UV-I 220 W/m 0,0 km/h (0 Bft)
18.09.2013 11:50 12,6 C 12,2 C 94 % 998,8 hPa 0,0 l/m 0 min 0 min 0,8 UV-I 216 W/m 5,1 km/h (1 Bft)
18.09.2013 11:52 12,7 C 12,2 C 94 % 998,9 hPa 0,0 l/m 0 min 0 min 0,8 UV-I 220 W/m 2,6 km/h (1 Bft)
18.09.2013 11:54 12,7 C 12,2 C 93 % 999,0 hPa 0,0 l/m 0 min 0 min 0,8 UV-I 220 W/m 7,7 km/h (2 Bft)
18.09.2013 11:56 12,7 C 12,2 C 93 % 999,1 hPa 0,0 l/m 0 min 0 min 0,8 UV-I 218 W/m 5,1 km/h (1 Bft)
18.09.2013 11:58 12,7 C 12,2 C 93 % 999,1 hPa 0,0 l/m 0 min 0 min 0,5 UV-I 192 W/m 7,7 km/h (2 Bft)
18.09.2013 12:00 12,7 C 12,2 C 92 % 999,1 hPa 0,0 l/m 0 min 0 min 0,5 UV-I 172 W/m 0,0 km/h (0 Bft)
18.09.2013 12:02 12,7 C 12,2 C 92 % 999,2 hPa 0,0 l/m 0 min 0 min 0,0 UV-I 144 W/m 2,6 km/h (1 Bft)
18.09.2013 12:06 12,7 C 12,2 C 92 % 999,1 hPa 0,0 l/m 0 min 0 min 0,8 UV-I 218 W/m 18,0 km/h (3 Bft)
18.09.2013 12:08 12,7 C 12,2 C 92 % 999,1 hPa 0,0 l/m 0 min 0 min 0,9 UV-I 230 W/m 10,3 km/h (2 Bft)
18.09.2013 12:10 12,7 C 12,2 C 91 % 999,1 hPa 0,0 l/m 0 min 0 min 1,0 UV-I 241 W/m 5,1 km/h (1 Bft)
18.09.2013 12:12 12,8 C 12,2 C 91 % 999,2 hPa 0,0 l/m 0 min 0 min 1,1 UV-I 264 W/m 0,0 km/h (0 Bft)
18.09.2013 12:14 12,9 C 12,2 C 91 % 999,3 hPa 0,0 l/m 0 min 0 min 1,0 UV-I 243 W/m 7,7 km/h (2 Bft)
18.09.2013 12:16 12,9 C 12,2 C 91 % 999,3 hPa 0,0 l/m 0 min 0 min 0,9 UV-I 220 W/m 7,7 km/h (2 Bft)
18.09.2013 12:18 12,9 C 12,2 C 90 % 999,3 hPa 0,0 l/m 0 min 0 min 1,0 UV-I 227 W/m 10,3 km/h (2 Bft)
18.09.2013 12:20 12,8 C 12,2 C 90 % 999,3 hPa 0,0 l/m 0 min 0 min 1,0 UV-I 223 W/m 7,7 km/h (2 Bft)
18.09.2013 12:22 12,8 C 12,2 C 90 % 999,3 hPa 0,0 l/m 0 min 0 min 0,9 UV-I 207 W/m 10,3 km/h (2 Bft)
18.09.2013 12:24 12,8 C 12,2 C 90 % 999,3 hPa 0,0 l/m 0 min 0 min 1,1 UV-I 230 W/m 5,1 km/h (1 Bft)
18.09.2013 12:26 12,8 C 12,8 C 90 % 999,3 hPa 0,0 l/m 0 min 0 min 1,2 UV-I 292 W/m 7,7 km/h (2 Bft)
18.09.2013 12:28 12,9 C 12,8 C 90 % 999,3 hPa 0,0 l/m 0 min 0 min 1,3 UV-I 294 W/m 7,7 km/h (2 Bft)
18.09.2013 12:30 12,9 C 12,8 C 90 % 999,4 hPa 0,0 l/m 0 min 0 min 1,3 UV-I 294 W/m 7,7 km/h (2 Bft)
18.09.2013 12:32 13,1 C 12,8 C 90 % 999,4 hPa 0,0 l/m 0 min 0 min 1,3 UV-I 306 W/m 0,0 km/h (0 Bft)
18.09.2013 12:34 13,1 C 12,8 C 90 % 999,4 hPa 0,0 l/m 0 min 0 min 1,3 UV-I 311 W/m 0,0 km/h (0 Bft)
18.09.2013 12:36 13,2 C 12,8 C 90 % 999,5 hPa 0,0 l/m 0 min 0 min 1,3 UV-I 308 W/m 2,6 km/h (1 Bft)
18.09.2013 12:38 13,3 C 13,3 C 89 % 999,4 hPa 0,0 l/m 0 min 0 min 1,4 UV-I 323 W/m 10,3 km/h (2 Bft)
18.09.2013 12:40 13,4 C 13,3 C 90 % 999,4 hPa 0,0 l/m 0 min 0 min 1,5 UV-I 341 W/m 0,0 km/h (0 Bft)
18.09.2013 12:42 13,4 C 13,3 C 89 % 999,4 hPa 0,0 l/m 0 min 0 min 1,4 UV-I 336 W/m 0,0 km/h (0 Bft)
18.09.2013 12:44 13,5 C 13,3 C 88 % 999,4 hPa 0,0 l/m 0 min 0 min 1,3 UV-I 304 W/m 12,9 km/h (3 Bft)
18.09.2013 12:46 13,5 C 13,3 C 88 % 999,5 hPa 0,0 l/m 0 min 0 min 1,2 UV-I 292 W/m 7,7 km/h (2 Bft)
18.09.2013 12:48 13,6 C 13,3 C 87 % 999,5 hPa 0,0 l/m 0 min 0 min 1,2 UV-I 267 W/m 7,7 km/h (2 Bft)
18.09.2013 12:50 13,5 C 13,3 C 87 % 999,5 hPa 0,0 l/m 0 min 0 min 1,2 UV-I 283 W/m 2,6 km/h (1 Bft)
18.09.2013 12:52 13,6 C 13,3 C 88 % 999,5 hPa 0,0 l/m 0 min 0 min 1,2 UV-I 278 W/m 5,1 km/h (1 Bft)
18.09.2013 12:54 13,6 C 13,3 C 87 % 999,5 hPa 0,0 l/m 0 min 0 min 1,2 UV-I 276 W/m 2,6 km/h (1 Bft)
18.09.2013 12:56 13,6 C 13,3 C 87 % 999,6 hPa 0,0 l/m 0 min 0 min 1,0 UV-I 248 W/m 2,6 km/h (1 Bft)
18.09.2013 12:58 13,6 C 13,3 C 87 % 999,6 hPa 0,0 l/m 0 min 0 min 1,0 UV-I 253 W/m 5,1 km/h (1 Bft)
18.09.2013 13:00 13,5 C 13,3 C 87 % 999,6 hPa 0,0 l/m 0 min 0 min 0,9 UV-I 218 W/m 12,9 km/h (3 Bft)
18.09.2013 13:02 13,5 C 13,3 C 87 % 999,6 hPa 0,0 l/m 0 min 0 min 0,8 UV-I 211 W/m 0,0 km/h (0 Bft)
18.09.2013 13:06 13,5 C 13,3 C 87 % 999,7 hPa 0,0 l/m 0 min 0 min 0,8 UV-I 209 W/m 5,1 km/h (1 Bft)
18.09.2013 13:08 13,6 C 13,3 C 87 % 999,7 hPa 0,0 l/m 0 min 0 min 1,0 UV-I 246 W/m 5,1 km/h (1 Bft)
18.09.2013 13:10 13,6 C 13,3 C 87 % 999,7 hPa 0,0 l/m 0 min 0 min 1,1 UV-I 267 W/m 0,0 km/h (0 Bft)
18.09.2013 13:12 13,7 C 13,3 C 86 % 999,8 hPa 0,0 l/m 0 min 0 min 1,0 UV-I 232 W/m 12,9 km/h (3 Bft)
18.09.2013 13:14 13,7 C 13,3 C 86 % 999,8 hPa 0,0 l/m 0 min 0 min 1,0 UV-I 232 W/m 5,1 km/h (1 Bft)
18.09.2013 13:16 13,6 C 13,3 C 85 % 999,8 hPa 0,0 l/m 0 min 0 min 1,1 UV-I 260 W/m 10,3 km/h (2 Bft)
18.09.2013 13:18 13,6 C 13,3 C 84 % 999,8 hPa 0,0 l/m 0 min 0 min 1,1 UV-I 267 W/m 0,0 km/h (0 Bft)
18.09.2013 13:20 13,7 C 13,3 C 84 % 999,9 hPa 0,0 l/m 0 min 0 min 1,1 UV-I 281 W/m 0,0 km/h (0 Bft)
18.09.2013 13:22 13,7 C 13,3 C 84 % 999,8 hPa 0,0 l/m 0 min 0 min 1,1 UV-I 269 W/m 5,1 km/h (1 Bft)
18.09.2013 13:24 13,8 C 13,9 C 85 % 999,9 hPa 0,0 l/m 0 min 0 min 1,2 UV-I 288 W/m 7,7 km/h (2 Bft)
18.09.2013 13:26 13,8 C 13,9 C 85 % 999,9 hPa 0,0 l/m 0 min 0 min 1,1 UV-I 285 W/m 7,7 km/h (2 Bft)
18.09.2013 13:28 13,8 C 13,9 C 84 % 999,9 hPa 0,0 l/m 0 min 0 min 1,2 UV-I 278 W/m 0,0 km/h (0 Bft)
18.09.2013 13:30 13,9 C 13,9 C 85 % 999,9 hPa 0,0 l/m 0 min 0 min 1,1 UV-I 267 W/m 5,1 km/h (1 Bft)
18.09.2013 13:32 13,9 C 13,9 C 83 % 999,9 hPa 0,0 l/m 0 min 0 min 1,1 UV-I 260 W/m 12,9 km/h (3 Bft)
18.09.2013 13:34 13,9 C 13,9 C 83 % 999,9 hPa 0,0 l/m 0 min 0 min 1,1 UV-I 267 W/m 7,7 km/h (2 Bft)
18.09.2013 13:36 13,9 C 13,9 C 83 % 1000,0 hPa 0,0 l/m 0 min 0 min 1,1 UV-I 258 W/m 12,9 km/h (3 Bft)
18.09.2013 13:38 13,9 C 13,9 C 83 % 1000,0 hPa 0,0 l/m 0 min 0 min 1,1 UV-I 255 W/m 10,3 km/h (2 Bft)
18.09.2013 13:40 14,0 C 13,9 C 85 % 1000,0 hPa 0,0 l/m 0 min 0 min 1,0 UV-I 246 W/m 0,0 km/h (0 Bft)
18.09.2013 13:42 14,1 C 13,9 C 85 % 1000,1 hPa 0,0 l/m 0 min 0 min 0,8 UV-I 199 W/m 0,0 km/h (0 Bft)
18.09.2013 13:44 13,9 C 13,9 C 84 % 1000,2 hPa 0,0 l/m 0 min 0 min 0,7 UV-I 185 W/m 7,7 km/h (2 Bft)
18.09.2013 13:46 13,9 C 13,3 C 84 % 1000,1 hPa 0,0 l/m 0 min 0 min 0,7 UV-I 192 W/m 10,3 km/h (2 Bft)
18.09.2013 13:48 13,8 C 13,3 C 83 % 1000,2 hPa 0,0 l/m 0 min 0 min 0,7 UV-I 176 W/m 12,9 km/h (3 Bft)
18.09.2013 13:50 13,7 C 13,3 C 82 % 1000,2 hPa 0,0 l/m 0 min 0 min 0,6 UV-I 153 W/m 0,0 km/h (0 Bft)
18.09.2013 13:52 13,7 C 13,3 C 82 % 1000,2 hPa 0,0 l/m 0 min 0 min 0,7 UV-I 149 W/m 5,1 km/h (1 Bft)
18.09.2013 13:54 13,6 C 13,3 C 81 % 1000,2 hPa 0,0 l/m 0 min 0 min 0,9 UV-I 207 W/m 7,7 km/h (2 Bft)
18.09.2013 13:56 13,6 C 13,3 C 82 % 1000,2 hPa 0,0 l/m 0 min 0 min 1,1 UV-I 234 W/m 0,0 km/h (0 Bft)
18.09.2013 13:58 13,7 C 13,3 C 83 % 1000,2 hPa 0,0 l/m 0 min 0 min 1,1 UV-I 257 W/m 0,0 km/h (0 Bft)
18.09.2013 14:00 13,8 C 13,3 C 83 % 1000,2 hPa 0,0 l/m 0 min 0 min 1,2 UV-I 274 W/m 12,9 km/h (3 Bft)
18.09.2013 14:02 13,8 C 13,9 C 83 % 1000,3 hPa 0,0 l/m 0 min 0 min 1,1 UV-I 281 W/m 2,6 km/h (1 Bft)
18.09.2013 14:06 13,8 C 13,9 C 83 % 1000,2 hPa 0,0 l/m 0 min 0 min 1,0 UV-I 234 W/m 10,3 km/h (2 Bft)
18.09.2013 14:08 13,8 C 13,9 C 83 % 1000,2 hPa 0,0 l/m 0 min 0 min 1,1 UV-I 243 W/m 15,4 km/h (3 Bft)
18.09.2013 14:10 13,9 C 13,9 C 83 % 1000,2 hPa 0,0 l/m 0 min 0 min 1,3 UV-I 276 W/m 2,6 km/h (1 Bft)
18.09.2013 14:12 13,8 C 13,9 C 83 % 1000,2 hPa 0,0 l/m 0 min 0 min 1,4 UV-I 309 W/m 7,7 km/h (2 Bft)
18.09.2013 14:14 13,9 C 13,9 C 83 % 1000,2 hPa 0,0 l/m 0 min 0 min 1,3 UV-I 295 W/m 5,1 km/h (1 Bft)
18.09.2013 14:16 14,0 C 13,9 C 83 % 1000,2 hPa 0,0 l/m 0 min 0 min 1,3 UV-I 278 W/m 5,1 km/h (1 Bft)
18.09.2013 14:18 14,0 C 13,9 C 83 % 1000,2 hPa 0,0 l/m 0 min 0 min 1,2 UV-I 251 W/m 5,1 km/h (1 Bft)
18.09.2013 14:20 14,0 C 13,9 C 81 % 1000,2 hPa 0,0 l/m 0 min 0 min 1,1 UV-I 244 W/m 0,0 km/h (0 Bft)
18.09.2013 14:22 14,0 C 13,9 C 83 % 1000,2 hPa 0,0 l/m 0 min 0 min 1,2 UV-I 244 W/m 10,3 km/h (2 Bft)
18.09.2013 14:24 13,9 C 13,9 C 80 % 1000,2 hPa 0,0 l/m 0 min 0 min 1,2 UV-I 265 W/m 0,0 km/h (0 Bft)
18.09.2013 14:26 14,0 C 13,9 C 82 % 1000,3 hPa 0,0 l/m 0 min 0 min 1,3 UV-I 304 W/m 12,9 km/h (3 Bft)
18.09.2013 14:28 14,1 C 13,9 C 81 % 1000,2 hPa 0,0 l/m 0 min 0 min 1,2 UV-I 257 W/m 12,9 km/h (3 Bft)
18.09.2013 14:30 14,2 C 13,9 C 82 % 1000,3 hPa 0,0 l/m 0 min 0 min 0,9 UV-I 204 W/m 0,0 km/h (0 Bft)
18.09.2013 14:32 14,2 C 13,9 C 81 % 1000,3 hPa 0,0 l/m 0 min 0 min 0,9 UV-I 199 W/m 0,0 km/h (0 Bft)
18.09.2013 14:34 14,2 C 13,9 C 81 % 1000,3 hPa 0,0 l/m 0 min 0 min 0,9 UV-I 216 W/m 0,0 km/h (0 Bft)
18.09.2013 14:36 14,2 C 13,9 C 81 % 1000,3 hPa 0,0 l/m 0 min 0 min 0,9 UV-I 213 W/m 10,3 km/h (2 Bft)
18.09.2013 14:38 14,2 C 13,9 C 82 % 1000,4 hPa 0,0 l/m 0 min 0 min 0,8 UV-I 199 W/m 5,1 km/h (1 Bft)
18.09.2013 14:40 14,2 C 13,9 C 81 % 1000,5 hPa 0,0 l/m 0 min 0 min 0,6 UV-I 183 W/m 5,1 km/h (1 Bft)
18.09.2013 14:42 14,2 C 13,9 C 82 % 1000,5 hPa 0,0 l/m 0 min 0 min 0,7 UV-I 190 W/m 5,1 km/h (1 Bft)
18.09.2013 14:44 14,1 C 13,9 C 81 % 1000,4 hPa 0,0 l/m 0 min 0 min 0,8 UV-I 204 W/m 7,7 km/h (2 Bft)
18.09.2013 14:46 14,0 C 13,9 C 81 % 1000,4 hPa 0,0 l/m 0 min 0 min 0,9 UV-I 227 W/m 2,6 km/h (1 Bft)
18.09.2013 14:48 13,9 C 13,9 C 81 % 1000,5 hPa 0,0 l/m 0 min 0 min 0,9 UV-I 230 W/m 10,3 km/h (2 Bft)
18.09.2013 14:50 13,9 C 13,9 C 82 % 1000,5 hPa 0,0 l/m 0 min 0 min 0,9 UV-I 225 W/m 0,0 km/h (0 Bft)
18.09.2013 14:52 13,8 C 13,9 C 80 % 1000,5 hPa 0,0 l/m 0 min 0 min 0,9 UV-I 225 W/m 12,9 km/h (3 Bft)
18.09.2013 14:54 13,9 C 13,9 C 81 % 1000,6 hPa 0,0 l/m 0 min 0 min 1,0 UV-I 221 W/m 10,3 km/h (2 Bft)
18.09.2013 14:56 13,9 C 13,9 C 80 % 1000,6 hPa 0,0 l/m 0 min 0 min 1,0 UV-I 221 W/m 10,3 km/h (2 Bft)
18.09.2013 14:58 13,9 C 13,9 C 81 % 1000,5 hPa 0,0 l/m 0 min 0 min 1,0 UV-I 229 W/m 5,1 km/h (1 Bft)
18.09.2013 15:00 13,9 C 13,9 C 81 % 1000,6 hPa 0,0 l/m 0 min 0 min 1,1 UV-I 243 W/m 0,0 km/h (0 Bft)
18.09.2013 15:02 13,9 C 13,9 C 80 % 1000,5 hPa 0,0 l/m 0 min 0 min 1,1 UV-I 250 W/m 7,7 km/h (2 Bft)
18.09.2013 15:06 14,0 C 13,3 C 81 % 1000,5 hPa 0,0 l/m 0 min 0 min 1,1 UV-I 216 W/m 7,7 km/h (2 Bft)
18.09.2013 15:08 14,1 C 13,3 C 81 % 1000,6 hPa 0,0 l/m 0 min 0 min 1,2 UV-I 223 W/m 7,7 km/h (2 Bft)
18.09.2013 15:10 14,0 C 13,3 C 81 % 1000,6 hPa 0,0 l/m 0 min 0 min 1,1 UV-I 209 W/m 7,7 km/h (2 Bft)
18.09.2013 15:12 13,9 C 13,3 C 81 % 1000,6 hPa 0,0 l/m 0 min 0 min 1,2 UV-I 206 W/m 12,9 km/h (3 Bft)
18.09.2013 15:14 14,0 C 13,3 C 82 % 1000,6 hPa 0,0 l/m 0 min 0 min 1,2 UV-I 206 W/m 0,0 km/h (0 Bft)
18.09.2013 15:16 14,2 C 13,3 C 83 % 1000,7 hPa 0,0 l/m 0 min 0 min 1,1 UV-I 167 W/m 0,0 km/h (0 Bft)
18.09.2013 15:18 14,2 C 13,3 C 83 % 1000,7 hPa 0,0 l/m 0 min 0 min 1,1 UV-I 211 W/m 5,1 km/h (1 Bft)
18.09.2013 15:20 14,2 C 13,3 C 82 % 1000,7 hPa 0,0 l/m 0 min 0 min 1,2 UV-I 239 W/m 0,0 km/h (0 Bft)
18.09.2013 15:22 14,2 C 13,3 C 82 % 1000,7 hPa 0,0 l/m 0 min 0 min 1,2 UV-I 294 W/m 10,3 km/h (2 Bft)
18.09.2013 15:24 14,2 C 13,9 C 82 % 1000,7 hPa 0,0 l/m 2 min 0 min 1,2 UV-I 316 W/m 10,3 km/h (2 Bft)
18.09.2013 15:26 14,2 C 13,9 C 81 % 1000,8 hPa 0,0 l/m 0 min 0 min 1,1 UV-I 267 W/m 7,7 km/h (2 Bft)
18.09.2013 15:28 14,2 C 13,9 C 81 % 1000,8 hPa 0,0 l/m 0 min 0 min 1,1 UV-I 246 W/m 5,1 km/h (1 Bft)
18.09.2013 15:30 14,4 C 13,9 C 81 % 1000,8 hPa 0,0 l/m 0 min 0 min 1,2 UV-I 292 W/m 5,1 km/h (1 Bft)
18.09.2013 15:32 14,4 C 13,9 C 80 % 1000,9 hPa 0,0 l/m 0 min 0 min 1,1 UV-I 257 W/m 5,1 km/h (1 Bft)
18.09.2013 15:34 14,4 C 13,9 C 80 % 1000,9 hPa 0,0 l/m 0 min 0 min 1,0 UV-I 255 W/m 7,7 km/h (2 Bft)
18.09.2013 15:36 14,3 C 13,9 C 80 % 1000,9 hPa 0,0 l/m 0 min 0 min 1,1 UV-I 274 W/m 0,0 km/h (0 Bft)
18.09.2013 15:38 14,4 C 14,4 C 81 % 1000,9 hPa 0,0 l/m 0 min 0 min 1,1 UV-I 274 W/m 0,0 km/h (0 Bft)
18.09.2013 15:40 14,4 C 14,4 C 80 % 1000,9 hPa 0,0 l/m 0 min 0 min 1,0 UV-I 244 W/m 0,0 km/h (0 Bft)
18.09.2013 15:42 14,4 C 13,9 C 79 % 1000,9 hPa 0,0 l/m 0 min 0 min 1,0 UV-I 250 W/m 2,6 km/h (1 Bft)
18.09.2013 15:44 14,4 C 13,9 C 79 % 1000,9 hPa 0,0 l/m 0 min 0 min 1,1 UV-I 297 W/m 7,7 km/h (2 Bft)
18.09.2013 15:46 14,4 C 13,9 C 78 % 1000,9 hPa 0,0 l/m 2 min 0 min 1,2 UV-I 371 W/m 5,1 km/h (1 Bft)
18.09.2013 15:48 14,5 C 13,9 C 79 % 1000,9 hPa 0,0 l/m 2 min 0 min 1,6 UV-I 374 W/m 12,9 km/h (3 Bft)
18.09.2013 15:50 14,6 C 13,9 C 79 % 1000,9 hPa 0,0 l/m 2 min 0 min 1,4 UV-I 392 W/m 7,7 km/h (2 Bft)
18.09.2013 15:52 14,6 C 13,9 C 79 % 1000,9 hPa 0,0 l/m 2 min 0 min 1,2 UV-I 353 W/m 15,4 km/h (3 Bft)
18.09.2013 15:54 14,7 C 13,9 C 78 % 1000,9 hPa 0,0 l/m 2 min 0 min 1,1 UV-I 353 W/m 7,7 km/h (2 Bft)
18.09.2013 15:56 14,7 C 13,9 C 77 % 1000,9 hPa 0,0 l/m 2 min 0 min 1,0 UV-I 322 W/m 12,9 km/h (3 Bft)
18.09.2013 15:58 14,7 C 13,9 C 77 % 1000,9 hPa 0,0 l/m 2 min 0 min 1,2 UV-I 330 W/m 10,3 km/h (2 Bft)
18.09.2013 16:00 14,6 C 13,9 C 77 % 1000,9 hPa 0,0 l/m 2 min 0 min 1,1 UV-I 341 W/m 10,3 km/h (2 Bft)
18.09.2013 16:02 14,6 C 13,9 C 77 % 1000,9 hPa 0,0 l/m 2 min 0 min 1,1 UV-I 330 W/m 5,1 km/h (1 Bft)
18.09.2013 16:06 14,7 C 13,9 C 79 % 1001,0 hPa 0,0 l/m 2 min 0 min 1,0 UV-I 279 W/m 12,9 km/h (3 Bft)
18.09.2013 16:08 14,8 C 13,9 C 78 % 1001,0 hPa 0,0 l/m 2 min 0 min 1,4 UV-I 279 W/m 15,4 km/h (3 Bft)
18.09.2013 16:10 14,8 C 13,9 C 76 % 1001,0 hPa 0,0 l/m 2 min 0 min 1,2 UV-I 432 W/m 10,3 km/h (2 Bft)
18.09.2013 16:12 14,9 C 14,4 C 77 % 1001,0 hPa 0,0 l/m 2 min 0 min 1,4 UV-I 585 W/m 7,7 km/h (2 Bft)
18.09.2013 16:14 15,3 C 15,0 C 77 % 1001,0 hPa 0,0 l/m 2 min 0 min 1,3 UV-I 591 W/m 7,7 km/h (2 Bft)
18.09.2013 16:16 15,5 C 15,0 C 76 % 1001,0 hPa 0,0 l/m 2 min 0 min 1,2 UV-I 343 W/m 7,7 km/h (2 Bft)
18.09.2013 16:18 15,5 C 15,0 C 73 % 1001,0 hPa 0,0 l/m 2 min 0 min 1,3 UV-I 580 W/m 12,9 km/h (3 Bft)
18.09.2013 16:20 15,4 C 15,0 C 73 % 1001,0 hPa 0,0 l/m 2 min 0 min 1,2 UV-I 575 W/m 15,4 km/h (3 Bft)
18.09.2013 16:22 15,5 C 15,0 C 75 % 1001,1 hPa 0,0 l/m 2 min 0 min 1,2 UV-I 540 W/m 15,4 km/h (3 Bft)
18.09.2013 16:24 15,8 C 15,0 C 75 % 1001,0 hPa 0,0 l/m 2 min 0 min 1,1 UV-I 462 W/m 12,9 km/h (3 Bft)
18.09.2013 16:26 15,9 C 15,0 C 74 % 1001,0 hPa 0,0 l/m 2 min 0 min 1,1 UV-I 506 W/m 7,7 km/h (2 Bft)
18.09.2013 16:28 15,8 C 15,0 C 73 % 1001,0 hPa 0,0 l/m 2 min 0 min 1,1 UV-I 473 W/m 18,0 km/h (3 Bft)
18.09.2013 16:30 15,6 C 15,0 C 73 % 1001,0 hPa 0,0 l/m 2 min 0 min 1,0 UV-I 431 W/m 10,3 km/h (2 Bft)
18.09.2013 16:32 15,7 C 15,0 C 74 % 1001,0 hPa 0,0 l/m 2 min 0 min 1,0 UV-I 466 W/m 7,7 km/h (2 Bft)
18.09.2013 16:34 15,7 C 15,0 C 74 % 1001,0 hPa 0,0 l/m 2 min 0 min 1,0 UV-I 466 W/m 15,4 km/h (3 Bft)
18.09.2013 16:36 15,7 C 15,0 C 74 % 1001,2 hPa 0,0 l/m 2 min 0 min 1,0 UV-I 454 W/m 12,9 km/h (3 Bft)
18.09.2013 16:38 15,7 C 15,0 C 74 % 1001,1 hPa 0,0 l/m 2 min 0 min 1,0 UV-I 483 W/m 18,0 km/h (3 Bft)
18.09.2013 16:40 15,7 C 15,6 C 74 % 1001,2 hPa 0,0 l/m 2 min 0 min 0,9 UV-I 497 W/m 15,4 km/h (3 Bft)
18.09.2013 16:42 15,7 C 15,6 C 74 % 1001,2 hPa 0,0 l/m 2 min 0 min 0,9 UV-I 512 W/m 7,7 km/h (2 Bft)
18.09.2013 16:44 15,7 C 15,0 C 74 % 1001,2 hPa 0,0 l/m 2 min 0 min 0,8 UV-I 383 W/m 7,7 km/h (2 Bft)
18.09.2013 16:46 15,6 C 15,0 C 74 % 1001,2 hPa 0,0 l/m 0 min 0 min 0,6 UV-I 155 W/m 12,9 km/h (3 Bft)
18.09.2013 16:48 15,4 C 14,4 C 74 % 1001,3 hPa 0,0 l/m 0 min 0 min 0,5 UV-I 206 W/m 12,9 km/h (3 Bft)
18.09.2013 16:50 15,2 C 13,9 C 75 % 1001,3 hPa 0,0 l/m 0 min 0 min 0,0 UV-I 142 W/m 0,0 km/h (0 Bft)
18.09.2013 16:52 15,0 C 13,9 C 76 % 1001,3 hPa 0,0 l/m 0 min 0 min 0,0 UV-I 158 W/m 0,0 km/h (0 Bft)
18.09.2013 16:54 14,8 C 13,9 C 76 % 1001,3 hPa 0,0 l/m 0 min 0 min 0,0 UV-I 172 W/m 5,1 km/h (1 Bft)
18.09.2013 16:56 14,7 C 13,9 C 77 % 1001,4 hPa 0,0 l/m 2 min 0 min 0,0 UV-I 265 W/m 7,7 km/h (2 Bft)
18.09.2013 16:58 14,7 C 13,9 C 78 % 1001,4 hPa 0,0 l/m 0 min 0 min 0,0 UV-I 202 W/m 12,9 km/h (3 Bft)
18.09.2013 17:00 14,7 C 13,9 C 78 % 1001,4 hPa 0,0 l/m 0 min 0 min 0,0 UV-I 206 W/m 5,1 km/h (1 Bft)
18.09.2013 17:02 14,7 C 13,9 C 78 % 1001,4 hPa 0,0 l/m 0 min 0 min 0,0 UV-I 193 W/m 0,0 km/h (0 Bft)
18.09.2013 17:06 14,6 C 13,9 C 78 % 1001,3 hPa 0,0 l/m 0 min 0 min 0,0 UV-I 141 W/m 15,4 km/h (3 Bft)
18.09.2013 17:08 14,6 C 13,9 C 79 % 1001,3 hPa 0,0 l/m 0 min 0 min 0,0 UV-I 135 W/m 5,1 km/h (1 Bft)
18.09.2013 17:10 14,5 C 13,9 C 80 % 1001,3 hPa 0,0 l/m 0 min 0 min 0,0 UV-I 139 W/m 7,7 km/h (2 Bft)
18.09.2013 17:12 14,4 C 13,9 C 80 % 1001,3 hPa 0,0 l/m 0 min 0 min 0,0 UV-I 141 W/m 7,7 km/h (2 Bft)
18.09.2013 17:14 14,4 C 13,9 C 80 % 1001,4 hPa 0,0 l/m 0 min 0 min 0,0 UV-I 139 W/m 2,6 km/h (1 Bft)
18.09.2013 17:16 14,4 C 13,9 C 79 % 1001,4 hPa 0,0 l/m 0 min 0 min 0,0 UV-I 130 W/m 7,7 km/h (2 Bft)
18.09.2013 17:18 14,3 C 13,3 C 79 % 1001,4 hPa 0,0 l/m 0 min 0 min 0,0 UV-I 123 W/m 10,3 km/h (2 Bft)
18.09.2013 17:20 14,2 C 13,3 C 80 % 1001,4 hPa 0,0 l/m 0 min 0 min 0,0 UV-I 116 W/m 0,0 km/h (0 Bft)
18.09.2013 17:22 14,2 C 13,3 C 80 % 1001,5 hPa 0,0 l/m 0 min 0 min 0,0 UV-I 107 W/m 0,0 km/h (0 Bft)
18.09.2013 17:24 14,2 C 13,3 C 80 % 1001,4 hPa 0,0 l/m 0 min 0 min 0,0 UV-I 109 W/m 5,1 km/h (1 Bft)
18.09.2013 17:26 14,2 C 13,3 C 81 % 1001,4 hPa 0,0 l/m 0 min 0 min 0,0 UV-I 105 W/m 5,1 km/h (1 Bft)
18.09.2013 17:28 14,2 C 13,3 C 81 % 1001,5 hPa 0,0 l/m 0 min 0 min 0,0 UV-I 102 W/m 12,9 km/h (3 Bft)
18.09.2013 17:30 14,2 C 13,3 C 81 % 1001,4 hPa 0,0 l/m 0 min 0 min 0,0 UV-I 109 W/m 10,3 km/h (2 Bft)
18.09.2013 17:32 14,2 C 13,3 C 81 % 1001,5 hPa 0,0 l/m 0 min 0 min 0,0 UV-I 113 W/m 10,3 km/h (2 Bft)
18.09.2013 17:34 14,1 C 13,3 C 82 % 1001,5 hPa 0,0 l/m 0 min 0 min 0,0 UV-I 118 W/m 10,3 km/h (2 Bft)
18.09.2013 17:36 14,1 C 13,3 C 82 % 1001,6 hPa 0,0 l/m 0 min 0 min 0,0 UV-I 113 W/m 10,3 km/h (2 Bft)
18.09.2013 17:38 14,1 C 13,3 C 82 % 1001,6 hPa 0,0 l/m 0 min 0 min 0,0 UV-I 105 W/m 7,7 km/h (2 Bft)
18.09.2013 17:40 14,0 C 13,3 C 82 % 1001,6 hPa 0,0 l/m 0 min 0 min 0,0 UV-I 102 W/m 7,7 km/h (2 Bft)
18.09.2013 17:42 14,0 C 13,3 C 82 % 1001,6 hPa 0,0 l/m 0 min 0 min 0,0 UV-I 102 W/m 0,0 km/h (0 Bft)
18.09.2013 17:44 14,0 C 13,3 C 82 % 1001,7 hPa 0,0 l/m 0 min 0 min 0,0 UV-I 97 W/m 2,6 km/h (1 Bft)
18.09.2013 17:46 13,9 C 12,8 C 81 % 1001,7 hPa 0,0 l/m 0 min 0 min 0,0 UV-I 86 W/m 0,0 km/h (0 Bft)
18.09.2013 17:48 13,9 C 12,8 C 82 % 1001,7 hPa 0,0 l/m 0 min 0 min 0,0 UV-I 79 W/m 0,0 km/h (0 Bft)
18.09.2013 17:50 13,9 C 12,8 C 82 % 1001,7 hPa 0,0 l/m 0 min 0 min 0,0 UV-I 81 W/m 15,4 km/h (3 Bft)
18.09.2013 17:52 13,9 C 12,8 C 82 % 1001,8 hPa 0,0 l/m 0 min 0 min 0,0 UV-I 83 W/m 0,0 km/h (0 Bft)
18.09.2013 17:54 13,9 C 12,8 C 82 % 1001,8 hPa 0,0 l/m 0 min 0 min 0,0 UV-I 81 W/m 10,3 km/h (2 Bft)
18.09.2013 17:56 13,8 C 12,8 C 82 % 1001,8 hPa 0,0 l/m 0 min 0 min 0,0 UV-I 86 W/m 10,3 km/h (2 Bft)
18.09.2013 17:58 13,8 C 12,8 C 81 % 1001,9 hPa 0,0 l/m 0 min 0 min 0,0 UV-I 93 W/m 12,9 km/h (3 Bft)
18.09.2013 18:00 13,8 C 12,8 C 82 % 1001,9 hPa 0,0 l/m 0 min 0 min 0,0 UV-I 91 W/m 10,3 km/h (2 Bft)
18.09.2013 18:02 13,8 C 12,8 C 82 % 1002,0 hPa 0,0 l/m 0 min 0 min 0,0 UV-I 84 W/m 10,3 km/h (2 Bft)
18.09.2013 18:06 13,8 C 12,8 C 82 % 1001,9 hPa 0,0 l/m 0 min 0 min 0,0 UV-I 72 W/m 5,1 km/h (1 Bft)
18.09.2013 18:08 13,8 C 12,8 C 82 % 1002,0 hPa 0,0 l/m 0 min 0 min 0,0 UV-I 65 W/m 10,3 km/h (2 Bft)
18.09.2013 18:10 13,7 C 12,8 C 82 % 1002,0 hPa 0,0 l/m 0 min 0 min 0,0 UV-I 60 W/m 7,7 km/h (2 Bft)
18.09.2013 18:12 13,7 C 12,8 C 82 % 1002,1 hPa 0,0 l/m 0 min 0 min 0,0 UV-I 54 W/m 10,3 km/h (2 Bft)
18.09.2013 18:14 13,7 C 12,8 C 83 % 1002,1 hPa 0,0 l/m 0 min 0 min 0,0 UV-I 54 W/m 0,0 km/h (0 Bft)
18.09.2013 18:16 13,7 C 12,8 C 83 % 1002,2 hPa 0,0 l/m 0 min 0 min 0,0 UV-I 56 W/m 10,3 km/h (2 Bft)
18.09.2013 18:18 13,7 C 12,8 C 83 % 1002,1 hPa 0,0 l/m 0 min 0 min 0,0 UV-I 54 W/m 7,7 km/h (2 Bft)
18.09.2013 18:20 13,7 C 12,8 C 83 % 1002,2 hPa 0,0 l/m 0 min 0 min 0,0 UV-I 49 W/m 10,3 km/h (2 Bft)
18.09.2013 18:22 13,6 C 12,8 C 83 % 1002,2 hPa 0,0 l/m 0 min 0 min 0,0 UV-I 46 W/m 5,1 km/h (1 Bft)
18.09.2013 18:24 13,6 C 12,8 C 84 % 1002,2 hPa 0,0 l/m 0 min 0 min 0,0 UV-I 46 W/m 12,9 km/h (3 Bft)
18.09.2013 18:26 13,6 C 12,8 C 84 % 1002,3 hPa 0,0 l/m 0 min 0 min 0,0 UV-I 46 W/m 0,0 km/h (0 Bft)
18.09.2013 18:28 13,6 C 12,2 C 85 % 1002,4 hPa 0,0 l/m 0 min 0 min 0,0 UV-I 42 W/m 7,7 km/h (2 Bft)
18.09.2013 18:30 13,6 C 12,2 C 85 % 1002,4 hPa 0,0 l/m 0 min 0 min 0,0 UV-I 44 W/m 0,0 km/h (0 Bft)
18.09.2013 18:32 13,6 C 12,2 C 85 % 1002,5 hPa 0,0 l/m 0 min 0 min 0,0 UV-I 42 W/m 2,6 km/h (1 Bft)
18.09.2013 18:34 13,6 C 12,2 C 86 % 1002,5 hPa 0,0 l/m 0 min 0 min 0,0 UV-I 39 W/m 7,7 km/h (2 Bft)
18.09.2013 18:36 13,5 C 12,2 C 86 % 1002,6 hPa 0,0 l/m 0 min 0 min 0,0 UV-I 37 W/m 0,0 km/h (0 Bft)
18.09.2013 18:38 13,5 C 12,2 C 87 % 1002,6 hPa 0,0 l/m 0 min 0 min 0,0 UV-I 33 W/m 2,6 km/h (1 Bft)
18.09.2013 18:40 13,5 C 12,2 C 87 % 1002,6 hPa 0,0 l/m 0 min 0 min 0,0 UV-I 35 W/m 0,0 km/h (0 Bft)
18.09.2013 18:42 13,4 C 12,2 C 87 % 1002,7 hPa 0,0 l/m 0 min 0 min 0,0 UV-I 32 W/m 0,0 km/h (0 Bft)
18.09.2013 18:44 13,4 C 12,2 C 87 % 1002,7 hPa 0,0 l/m 0 min 0 min 0,0 UV-I 30 W/m 2,6 km/h (1 Bft)
18.09.2013 18:46 13,4 C 12,2 C 87 % 1002,7 hPa 0,0 l/m 0 min 0 min 0,0 UV-I 28 W/m 7,7 km/h (2 Bft)
18.09.2013 18:48 13,3 C 12,2 C 87 % 1002,8 hPa 0,0 l/m 0 min 0 min 0,0 UV-I 30 W/m 0,0 km/h (0 Bft)
18.09.2013 18:50 13,3 C 12,2 C 87 % 1002,7 hPa 0,0 l/m 0 min 0 min 0,0 UV-I 30 W/m 7,7 km/h (2 Bft)
18.09.2013 18:52 13,2 C 12,2 C 87 % 1002,8 hPa 0,0 l/m 0 min 0 min 0,0 UV-I 30 W/m 18,0 km/h (3 Bft)
18.09.2013 18:54 13,2 C 12,2 C 86 % 1002,8 hPa 0,0 l/m 0 min 0 min 0,0 UV-I 28 W/m 15,4 km/h (3 Bft)
18.09.2013 18:56 13,1 C 12,2 C 86 % 1003,0 hPa 0,0 l/m 0 min 0 min 0,0 UV-I 28 W/m 2,6 km/h (1 Bft)
18.09.2013 18:58 13,1 C 12,2 C 86 % 1002,9 hPa 0,0 l/m 0 min 0 min 0,0 UV-I 25 W/m 15,4 km/h (3 Bft)
18.09.2013 19:00 13,0 C 11,7 C 86 % 1003,0 hPa 0,0 l/m 0 min 0 min 0,0 UV-I 23 W/m 20,6 km/h (4 Bft)
18.09.2013 19:02 12,9 C 11,7 C 86 % 1003,1 hPa 0,0 l/m 0 min 0 min 0,0 UV-I 21 W/m 12,9 km/h (3 Bft)
18.09.2013 19:06 12,9 C 11,7 C 86 % 1003,0 hPa 0,0 l/m 0 min 0 min 0,0 UV-I 18 W/m 7,7 km/h (2 Bft)
18.09.2013 19:08 12,8 C 11,7 C 86 % 1003,1 hPa 0,0 l/m 0 min 0 min 0,0 UV-I 16 W/m 10,3 km/h (2 Bft)
18.09.2013 19:10 12,8 C 11,7 C 86 % 1003,1 hPa 0,0 l/m 0 min 0 min 0,0 UV-I 14 W/m 2,6 km/h (1 Bft)
18.09.2013 19:12 12,8 C 11,7 C 86 % 1003,1 hPa 0,0 l/m 0 min 0 min 0,0 UV-I 12 W/m 7,7 km/h (2 Bft)
18.09.2013 19:14 12,8 C 11,7 C 87 % 1003,1 hPa 0,0 l/m 0 min 0 min 0,0 UV-I 12 W/m 12,9 km/h (3 Bft)
18.09.2013 19:16 12,7 C 11,7 C 87 % 1003,1 hPa 0,0 l/m 0 min 0 min 0,0 UV-I 9 W/m 12,9 km/h (3 Bft)
18.09.2013 19:18 12,7 C 11,7 C 87 % 1003,2 hPa 0,0 l/m 0 min 0 min 0,0 UV-I 9 W/m 12,9 km/h (3 Bft)
18.09.2013 19:20 12,7 C 11,7 C 87 % 1003,2 hPa 0,0 l/m 0 min 0 min 0,0 UV-I 7 W/m 5,1 km/h (1 Bft)
18.09.2013 19:22 12,7 C 11,7 C 87 % 1003,3 hPa 0,0 l/m 0 min 0 min 0,0 UV-I 5 W/m 2,6 km/h (1 Bft)
18.09.2013 19:24 12,7 C 11,7 C 87 % 1003,3 hPa 0,0 l/m 0 min 0 min 0,0 UV-I 5 W/m 0,0 km/h (0 Bft)
18.09.2013 19:26 12,6 C 11,7 C 87 % 1003,3 hPa 0,0 l/m 0 min 0 min 0,0 UV-I 7 W/m 5,1 km/h (1 Bft)
18.09.2013 19:28 12,6 C 11,7 C 88 % 1003,3 hPa 0,0 l/m 0 min 0 min 0,0 UV-I 5 W/m 0,0 km/h (0 Bft)
18.09.2013 19:30 12,6 C 11,7 C 88 % 1003,4 hPa 0,0 l/m 0 min 0 min 0,0 UV-I 5 W/m 0,0 km/h (0 Bft)
18.09.2013 19:32 12,6 C 11,7 C 88 % 1003,4 hPa 0,0 l/m 0 min 0 min 0,0 UV-I 5 W/m 2,6 km/h (1 Bft)
18.09.2013 19:34 12,6 C 11,7 C 88 % 1003,4 hPa 0,0 l/m 0 min 0 min 0,0 UV-I 5 W/m 0,0 km/h (0 Bft)
18.09.2013 19:36 12,6 C 11,7 C 88 % 1003,5 hPa 0,0 l/m 0 min 0 min 0,0 UV-I 5 W/m 0,0 km/h (0 Bft)
18.09.2013 19:38 12,5 C 11,7 C 88 % 1003,5 hPa 0,0 l/m 0 min 0 min 0,0 UV-I 0 W/m 2,6 km/h (1 Bft)
18.09.2013 19:40 12,5 C 11,1 C 88 % 1003,5 hPa 0,0 l/m 0 min 0 min 0,0 UV-I 0 W/m 5,1 km/h (1 Bft)
18.09.2013 19:42 12,5 C 11,1 C 88 % 1003,6 hPa 0,0 l/m 0 min 0 min 0,0 UV-I 0 W/m 2,6 km/h (1 Bft)
18.09.2013 19:44 12,5 C 11,1 C 88 % 1003,6 hPa 0,0 l/m 0 min 0 min 0,0 UV-I 0 W/m 2,6 km/h (1 Bft)
18.09.2013 19:46 12,4 C 11,1 C 88 % 1003,6 hPa 0,0 l/m 0 min 0 min 0,0 UV-I 0 W/m 0,0 km/h (0 Bft)
18.09.2013 19:48 12,4 C 11,1 C 88 % 1003,7 hPa 0,0 l/m 0 min 0 min 0,0 UV-I 0 W/m 2,6 km/h (1 Bft)
18.09.2013 19:50 12,4 C 11,1 C 88 % 1003,7 hPa 0,0 l/m 0 min 0 min 0,0 UV-I 0 W/m 0,0 km/h (0 Bft)
18.09.2013 19:52 12,4 C 11,1 C 88 % 1003,7 hPa 0,0 l/m 0 min 0 min 0,0 UV-I 0 W/m 10,3 km/h (2 Bft)
18.09.2013 19:54 12,3 C 11,1 C 88 % 1003,8 hPa 0,0 l/m 0 min 0 min 0,0 UV-I 0 W/m 12,9 km/h (3 Bft)
18.09.2013 19:56 12,3 C 11,1 C 88 % 1003,8 hPa 0,0 l/m 0 min 2 min 0,0 UV-I 0 W/m 10,3 km/h (2 Bft)
18.09.2013 19:58 12,3 C 11,1 C 88 % 1003,9 hPa 0,0 l/m 0 min 0 min 0,0 UV-I 0 W/m 0,0 km/h (0 Bft)
18.09.2013 20:00 12,3 C 11,1 C 88 % 1003,9 hPa 0,0 l/m 0 min 2 min 0,0 UV-I 0 W/m 7,7 km/h (2 Bft)
18.09.2013 20:02 12,3 C 10,6 C 88 % 1003,9 hPa 0,0 l/m 0 min 2 min 0,0 UV-I 0 W/m 10,3 km/h (2 Bft)
18.09.2013 20:06 12,2 C 10,6 C 88 % 1004,0 hPa 0,0 l/m 0 min 2 min 0,0 UV-I 0 W/m 10,3 km/h (2 Bft)
18.09.2013 20:08 12,2 C 10,6 C 89 % 1004,1 hPa 0,0 l/m 0 min 2 min 0,0 UV-I 0 W/m 2,6 km/h (1 Bft)
18.09.2013 20:10 12,1 C 10,6 C 89 % 1004,1 hPa 0,0 l/m 0 min 2 min 0,0 UV-I 0 W/m 2,6 km/h (1 Bft)
18.09.2013 20:12 12,1 C 10,6 C 90 % 1004,1 hPa 0,0 l/m 0 min 0 min 0,0 UV-I 0 W/m 2,6 km/h (1 Bft)
18.09.2013 20:14 12,1 C 10,6 C 90 % 1004,1 hPa 0,0 l/m 0 min 0 min 0,0 UV-I 0 W/m 0,0 km/h (0 Bft)
18.09.2013 20:16 12,0 C 10,6 C 90 % 1004,1 hPa 0,0 l/m 0 min 0 min 0,0 UV-I 0 W/m 2,6 km/h (1 Bft)
18.09.2013 20:18 11,9 C 10,6 C 90 % 1004,1 hPa 0,0 l/m 0 min 0 min 0,0 UV-I 0 W/m 2,6 km/h (1 Bft)
18.09.2013 20:20 11,9 C 10,6 C 91 % 1004,2 hPa 0,0 l/m 0 min 0 min 0,0 UV-I 0 W/m 0,0 km/h (0 Bft)
18.09.2013 20:22 11,9 C 10,6 C 91 % 1004,3 hPa 0,0 l/m 0 min 0 min 0,0 UV-I 0 W/m 0,0 km/h (0 Bft)
18.09.2013 20:24 11,9 C 10,6 C 91 % 1004,2 hPa 0,0 l/m 0 min 0 min 0,0 UV-I 0 W/m 0,0 km/h (0 Bft)
18.09.2013 20:26 11,9 C 10,6 C 91 % 1004,3 hPa 0,0 l/m 0 min 2 min 0,0 UV-I 0 W/m 0,0 km/h (0 Bft)
18.09.2013 20:28 11,9 C 10,6 C 91 % 1004,4 hPa 0,0 l/m 0 min 0 min 0,0 UV-I 0 W/m 2,6 km/h (1 Bft)
18.09.2013 20:30 11,8 C 10,6 C 91 % 1004,4 hPa 0,0 l/m 0 min 0 min 0,0 UV-I 0 W/m 2,6 km/h (1 Bft)
18.09.2013 20:32 11,8 C 10,6 C 91 % 1004,5 hPa 0,0 l/m 0 min 0 min 0,0 UV-I 0 W/m 0,0 km/h (0 Bft)
18.09.2013 20:34 11,8 C 10,6 C 91 % 1004,5 hPa 0,0 l/m 0 min 2 min 0,0 UV-I 0 W/m 2,6 km/h (1 Bft)
18.09.2013 20:36 11,8 C 10,6 C 91 % 1004,5 hPa 0,0 l/m 0 min 0 min 0,0 UV-I 0 W/m 7,7 km/h (2 Bft)
18.09.2013 20:38 11,8 C 10,6 C 91 % 1004,6 hPa 0,0 l/m 0 min 0 min 0,0 UV-I 0 W/m 7,7 km/h (2 Bft)
18.09.2013 20:40 11,8 C 10,6 C 91 % 1004,7 hPa 0,0 l/m 0 min 2 min 0,0 UV-I 0 W/m 2,6 km/h (1 Bft)
18.09.2013 20:42 11,7 C 10,0 C 91 % 1004,7 hPa 0,0 l/m 0 min 2 min 0,0 UV-I 0 W/m 2,6 km/h (1 Bft)
18.09.2013 20:44 11,7 C 10,0 C 91 % 1004,7 hPa 0,0 l/m 0 min 2 min 0,0 UV-I 0 W/m 5,1 km/h (1 Bft)
18.09.2013 20:46 11,7 C 10,0 C 91 % 1004,8 hPa 0,0 l/m 0 min 2 min 0,0 UV-I 0 W/m 0,0 km/h (0 Bft)
18.09.2013 20:48 11,6 C 10,0 C 91 % 1004,8 hPa 0,0 l/m 0 min 2 min 0,0 UV-I 0 W/m 2,6 km/h (1 Bft)
18.09.2013 20:50 11,6 C 10,0 C 92 % 1004,8 hPa 0,0 l/m 0 min 2 min 0,0 UV-I 0 W/m 0,0 km/h (0 Bft)
18.09.2013 20:52 11,5 C 10,0 C 92 % 1004,8 hPa 0,2 l/m 0 min 2 min 0,0 UV-I 0 W/m 7,7 km/h (2 Bft)
18.09.2013 20:54 11,4 C 10,0 C 92 % 1004,9 hPa 0,0 l/m 0 min 2 min 0,0 UV-I 0 W/m 7,7 km/h (2 Bft)
18.09.2013 20:56 11,4 C 10,0 C 92 % 1004,9 hPa 0,0 l/m 0 min 2 min 0,0 UV-I 0 W/m 12,9 km/h (3 Bft)
18.09.2013 20:58 11,4 C 10,0 C 92 % 1004,9 hPa 0,0 l/m 0 min 2 min 0,0 UV-I 0 W/m 5,1 km/h (1 Bft)
18.09.2013 21:00 11,4 C 10,0 C 93 % 1004,9 hPa 0,0 l/m 0 min 2 min 0,0 UV-I 0 W/m 2,6 km/h (1 Bft)
18.09.2013 21:02 11,3 C 10,0 C 93 % 1004,9 hPa 0,0 l/m 0 min 0 min 0,0 UV-I 0 W/m 7,7 km/h (2 Bft)
18.09.2013 21:06 11,3 C 10,0 C 94 % 1004,9 hPa 0,0 l/m 0 min 0 min 0,0 UV-I 0 W/m 0,0 km/h (0 Bft)
18.09.2013 21:08 11,3 C 10,0 C 94 % 1005,0 hPa 0,0 l/m 0 min 0 min 0,0 UV-I 0 W/m 0,0 km/h (0 Bft)
18.09.2013 21:10 11,3 C 10,0 C 94 % 1005,0 hPa 0,0 l/m 0 min 0 min 0,0 UV-I 0 W/m 0,0 km/h (0 Bft)
18.09.2013 21:12 11,3 C 10,0 C 94 % 1005,0 hPa 0,0 l/m 0 min 0 min 0,0 UV-I 0 W/m 0,0 km/h (0 Bft)
18.09.2013 21:14 11,3 C 10,0 C 94 % 1005,0 hPa 0,0 l/m 0 min 0 min 0,0 UV-I 0 W/m 0,0 km/h (0 Bft)
18.09.2013 21:16 11,3 C 10,0 C 94 % 1005,0 hPa 0,0 l/m 0 min 0 min 0,0 UV-I 0 W/m 2,6 km/h (1 Bft)
18.09.2013 21:18 11,3 C 10,0 C 94 % 1005,1 hPa 0,0 l/m 0 min 2 min 0,0 UV-I 0 W/m 0,0 km/h (0 Bft)
18.09.2013 21:20 11,3 C 10,0 C 94 % 1005,2 hPa 0,0 l/m 0 min 0 min 0,0 UV-I 0 W/m 0,0 km/h (0 Bft)
18.09.2013 21:22 11,3 C 10,0 C 94 % 1005,3 hPa 0,0 l/m 0 min 0 min 0,0 UV-I 0 W/m 10,3 km/h (2 Bft)
18.09.2013 21:24 11,3 C 10,0 C 95 % 1005,3 hPa 0,0 l/m 0 min 0 min 0,0 UV-I 0 W/m 12,9 km/h (3 Bft)
18.09.2013 21:26 11,3 C 10,0 C 95 % 1005,4 hPa 0,0 l/m 0 min 0 min 0,0 UV-I 0 W/m 7,7 km/h (2 Bft)
18.09.2013 21:28 11,3 C 10,0 C 95 % 1005,3 hPa 0,0 l/m 0 min 0 min 0,0 UV-I 0 W/m 0,0 km/h (0 Bft)
18.09.2013 21:30 11,2 C 10,0 C 95 % 1005,4 hPa 0,0 l/m 0 min 0 min 0,0 UV-I 0 W/m 7,7 km/h (2 Bft)
18.09.2013 21:32 11,2 C 10,0 C 95 % 1005,5 hPa 0,0 l/m 0 min 0 min 0,0 UV-I 0 W/m 7,7 km/h (2 Bft)
18.09.2013 21:34 11,2 C 10,0 C 95 % 1005,6 hPa 0,0 l/m 0 min 0 min 0,0 UV-I 0 W/m 7,7 km/h (2 Bft)
18.09.2013 21:36 11,2 C 10,0 C 95 % 1005,4 hPa 0,0 l/m 0 min 0 min 0,0 UV-I 0 W/m 5,1 km/h (1 Bft)
18.09.2013 21:38 11,2 C 10,0 C 95 % 1005,4 hPa 0,0 l/m 0 min 0 min 0,0 UV-I 0 W/m 7,7 km/h (2 Bft)
18.09.2013 21:40 11,2 C 9,4 C 95 % 1005,5 hPa 0,0 l/m 0 min 0 min 0,0 UV-I 0 W/m 0,0 km/h (0 Bft)
18.09.2013 21:42 11,1 C 9,4 C 95 % 1005,6 hPa 0,0 l/m 0 min 0 min 0,0 UV-I 0 W/m 0,0 km/h (0 Bft)
18.09.2013 21:44 11,1 C 9,4 C 95 % 1005,6 hPa 0,0 l/m 0 min 0 min 0,0 UV-I 0 W/m 0,0 km/h (0 Bft)
18.09.2013 21:46 11,1 C 9,4 C 95 % 1005,6 hPa 0,0 l/m 0 min 0 min 0,0 UV-I 0 W/m 2,6 km/h (1 Bft)
18.09.2013 21:48 11,1 C 9,4 C 95 % 1005,6 hPa 0,0 l/m 0 min 0 min 0,0 UV-I 0 W/m 0,0 km/h (0 Bft)
18.09.2013 21:50 11,1 C 9,4 C 95 % 1005,6 hPa 0,0 l/m 0 min 0 min 0,0 UV-I 0 W/m 0,0 km/h (0 Bft)
18.09.2013 21:52 11,1 C 9,4 C 95 % 1005,6 hPa 0,0 l/m 0 min 0 min 0,0 UV-I 0 W/m 0,0 km/h (0 Bft)
18.09.2013 21:54 11,1 C 9,4 C 95 % 1005,6 hPa 0,0 l/m 0 min 0 min 0,0 UV-I 0 W/m 0,0 km/h (0 Bft)
18.09.2013 21:56 11,0 C 9,4 C 95 % 1005,7 hPa 0,0 l/m 0 min 0 min 0,0 UV-I 0 W/m 7,7 km/h (2 Bft)
18.09.2013 21:58 11,0 C 9,4 C 95 % 1005,6 hPa 0,0 l/m 0 min 0 min 0,0 UV-I 0 W/m 0,0 km/h (0 Bft)
18.09.2013 22:00 11,0 C 9,4 C 95 % 1005,5 hPa 0,0 l/m 0 min 0 min 0,0 UV-I 0 W/m 2,6 km/h (1 Bft)
18.09.2013 22:02 11,0 C 9,4 C 95 % 1005,6 hPa 0,0 l/m 0 min 0 min 0,0 UV-I 0 W/m 0,0 km/h (0 Bft)
18.09.2013 22:06 11,0 C 9,4 C 95 % 1005,6 hPa 0,0 l/m 0 min 0 min 0,0 UV-I 0 W/m 0,0 km/h (0 Bft)
18.09.2013 22:08 10,9 C 9,4 C 96 % 1005,7 hPa 0,0 l/m 0 min 0 min 0,0 UV-I 0 W/m 0,0 km/h (0 Bft)
18.09.2013 22:10 10,9 C 9,4 C 96 % 1005,7 hPa 0,0 l/m 0 min 0 min 0,0 UV-I 0 W/m 0,0 km/h (0 Bft)
18.09.2013 22:12 10,9 C 9,4 C 96 % 1005,8 hPa 0,0 l/m 0 min 0 min 0,0 UV-I 0 W/m 0,0 km/h (0 Bft)
18.09.2013 22:14 10,9 C 9,4 C 96 % 1005,8 hPa 0,0 l/m 0 min 0 min 0,0 UV-I 0 W/m 0,0 km/h (0 Bft)
18.09.2013 22:16 10,9 C 9,4 C 96 % 1005,8 hPa 0,0 l/m 0 min 0 min 0,0 UV-I 0 W/m 0,0 km/h (0 Bft)
18.09.2013 22:18 10,8 C 9,4 C 95 % 1005,8 hPa 0,0 l/m 0 min 0 min 0,0 UV-I 0 W/m 2,6 km/h (1 Bft)
18.09.2013 22:20 10,8 C 9,4 C 95 % 1005,8 hPa 0,0 l/m 0 min 0 min 0,0 UV-I 0 W/m 0,0 km/h (0 Bft)
18.09.2013 22:22 10,8 C 9,4 C 96 % 1005,8 hPa 0,0 l/m 0 min 0 min 0,0 UV-I 0 W/m 0,0 km/h (0 Bft)
18.09.2013 22:24 10,7 C 9,4 C 96 % 1006,0 hPa 0,0 l/m 0 min 0 min 0,0 UV-I 0 W/m 0,0 km/h (0 Bft)
18.09.2013 22:26 10,7 C 9,4 C 96 % 1005,9 hPa 0,0 l/m 0 min 0 min 0,0 UV-I 0 W/m 0,0 km/h (0 Bft)
18.09.2013 22:28 10,7 C 9,4 C 96 % 1005,9 hPa 0,0 l/m 0 min 0 min 0,0 UV-I 0 W/m 2,6 km/h (1 Bft)
18.09.2013 22:30 10,7 C 9,4 C 96 % 1005,9 hPa 0,0 l/m 0 min 0 min 0,0 UV-I 0 W/m 0,0 km/h (0 Bft)
18.09.2013 22:32 10,7 C 9,4 C 96 % 1006,0 hPa 0,0 l/m 0 min 0 min 0,0 UV-I 0 W/m 0,0 km/h (0 Bft)
18.09.2013 22:34 10,7 C 9,4 C 96 % 1006,1 hPa 0,0 l/m 0 min 0 min 0,0 UV-I 0 W/m 0,0 km/h (0 Bft)
18.09.2013 22:36 10,7 C 9,4 C 96 % 1006,1 hPa 0,0 l/m 0 min 0 min 0,0 UV-I 0 W/m 0,0 km/h (0 Bft)
18.09.2013 22:38 10,7 C 9,4 C 96 % 1006,2 hPa 0,0 l/m 0 min 0 min 0,0 UV-I 0 W/m 10,3 km/h (2 Bft)
18.09.2013 22:40 10,6 C 9,4 C 96 % 1006,2 hPa 0,0 l/m 0 min 0 min 0,0 UV-I 0 W/m 5,1 km/h (1 Bft)
18.09.2013 22:42 10,6 C 9,4 C 96 % 1006,2 hPa 0,0 l/m 0 min 0 min 0,0 UV-I 0 W/m 2,6 km/h (1 Bft)
18.09.2013 22:44 10,6 C 8,9 C 96 % 1006,2 hPa 0,0 l/m 0 min 0 min 0,0 UV-I 0 W/m 0,0 km/h (0 Bft)
18.09.2013 22:46 10,6 C 8,9 C 96 % 1006,2 hPa 0,0 l/m 0 min 0 min 0,0 UV-I 0 W/m 0,0 km/h (0 Bft)
18.09.2013 22:48 10,5 C 8,9 C 96 % 1006,2 hPa 0,0 l/m 0 min 0 min 0,0 UV-I 0 W/m 0,0 km/h (0 Bft)
18.09.2013 22:50 10,5 C 8,9 C 96 % 1006,3 hPa 0,0 l/m 0 min 0 min 0,0 UV-I 0 W/m 0,0 km/h (0 Bft)
18.09.2013 22:52 10,5 C 8,9 C 96 % 1006,4 hPa 0,0 l/m 0 min 0 min 0,0 UV-I 0 W/m 0,0 km/h (0 Bft)
18.09.2013 22:54 10,5 C 8,9 C 96 % 1006,5 hPa 0,0 l/m 0 min 0 min 0,0 UV-I 0 W/m 2,6 km/h (1 Bft)
18.09.2013 22:56 10,5 C 8,9 C 96 % 1006,5 hPa 0,0 l/m 0 min 0 min 0,0 UV-I 0 W/m 2,6 km/h (1 Bft)
18.09.2013 22:58 10,5 C 8,9 C 96 % 1006,5 hPa 0,0 l/m 0 min 0 min 0,0 UV-I 0 W/m 0,0 km/h (0 Bft)
18.09.2013 23:00 10,4 C 8,9 C 96 % 1006,5 hPa 0,0 l/m 0 min 0 min 0,0 UV-I 0 W/m 0,0 km/h (0 Bft)
18.09.2013 23:02 10,4 C 8,9 C 96 % 1006,6 hPa 0,0 l/m 0 min 0 min 0,0 UV-I 0 W/m 2,6 km/h (1 Bft)
18.09.2013 23:06 10,4 C 8,9 C 96 % 1006,6 hPa 0,0 l/m 0 min 0 min 0,0 UV-I 0 W/m 0,0 km/h (0 Bft)
18.09.2013 23:08 10,4 C 8,9 C 96 % 1006,6 hPa 0,0 l/m 0 min 0 min 0,0 UV-I 0 W/m 7,7 km/h (2 Bft)
18.09.2013 23:10 10,4 C 8,9 C 96 % 1006,6 hPa 0,0 l/m 0 min 0 min 0,0 UV-I 0 W/m 0,0 km/h (0 Bft)
18.09.2013 23:12 10,3 C 8,9 C 96 % 1006,6 hPa 0,0 l/m 0 min 0 min 0,0 UV-I 0 W/m 0,0 km/h (0 Bft)
18.09.2013 23:14 10,3 C 8,9 C 96 % 1006,6 hPa 0,0 l/m 0 min 0 min 0,0 UV-I 0 W/m 0,0 km/h (0 Bft)
18.09.2013 23:16 10,3 C 8,9 C 96 % 1006,6 hPa 0,0 l/m 0 min 0 min 0,0 UV-I 0 W/m 7,7 km/h (2 Bft)
18.09.2013 23:18 10,3 C 8,9 C 96 % 1006,7 hPa 0,0 l/m 0 min 0 min 0,0 UV-I 0 W/m 12,9 km/h (3 Bft)
18.09.2013 23:20 10,3 C 8,9 C 96 % 1006,7 hPa 0,0 l/m 0 min 0 min 0,0 UV-I 0 W/m 12,9 km/h (3 Bft)
18.09.2013 23:22 10,2 C 8,9 C 96 % 1006,7 hPa 0,0 l/m 0 min 0 min 0,0 UV-I 0 W/m 0,0 km/h (0 Bft)
18.09.2013 23:24 10,2 C 8,9 C 96 % 1006,7 hPa 0,0 l/m 0 min 0 min 0,0 UV-I 0 W/m 0,0 km/h (0 Bft)
18.09.2013 23:26 10,2 C 8,9 C 96 % 1006,7 hPa 0,0 l/m 0 min 0 min 0,0 UV-I 0 W/m 0,0 km/h (0 Bft)
18.09.2013 23:28 10,1 C 8,9 C 96 % 1006,7 hPa 0,0 l/m 0 min 0 min 0,0 UV-I 0 W/m 0,0 km/h (0 Bft)
18.09.2013 23:30 10,1 C 8,9 C 96 % 1006,7 hPa 0,0 l/m 0 min 0 min 0,0 UV-I 0 W/m 2,6 km/h (1 Bft)
18.09.2013 23:32 10,1 C 8,9 C 96 % 1006,7 hPa 0,0 l/m 0 min 0 min 0,0 UV-I 0 W/m 0,0 km/h (0 Bft)
18.09.2013 23:34 10,0 C 8,9 C 96 % 1006,7 hPa 0,0 l/m 0 min 0 min 0,0 UV-I 0 W/m 0,0 km/h (0 Bft)
18.09.2013 23:36 10,0 C 8,3 C 96 % 1006,7 hPa 0,0 l/m 0 min 2 min 0,0 UV-I 0 W/m 0,0 km/h (0 Bft)
18.09.2013 23:38 9,9 C 8,3 C 96 % 1006,7 hPa 0,0 l/m 0 min 0 min 0,0 UV-I 0 W/m 0,0 km/h (0 Bft)
18.09.2013 23:40 9,9 C 8,3 C 96 % 1006,7 hPa 0,0 l/m 0 min 0 min 0,0 UV-I 0 W/m 7,7 km/h (2 Bft)
18.09.2013 23:42 9,9 C 8,3 C 96 % 1006,7 hPa 0,0 l/m 0 min 0 min 0,0 UV-I 0 W/m 0,0 km/h (0 Bft)
18.09.2013 23:44 9,9 C 8,3 C 96 % 1006,8 hPa 0,0 l/m 0 min 0 min 0,0 UV-I 0 W/m 2,6 km/h (1 Bft)
18.09.2013 23:46 9,9 C 8,9 C 96 % 1006,8 hPa 0,0 l/m 0 min 0 min 0,0 UV-I 0 W/m 0,0 km/h (0 Bft)
18.09.2013 23:48 9,9 C 8,9 C 96 % 1006,8 hPa 0,0 l/m 0 min 0 min 0,0 UV-I 0 W/m 7,7 km/h (2 Bft)
18.09.2013 23:50 9,9 C 8,9 C 96 % 1006,8 hPa 0,0 l/m 0 min 0 min 0,0 UV-I 0 W/m 7,7 km/h (2 Bft)
18.09.2013 23:52 9,9 C 8,9 C 96 % 1006,7 hPa 0,0 l/m 0 min 0 min 0,0 UV-I 0 W/m 0,0 km/h (0 Bft)
18.09.2013 23:54 9,9 C 8,9 C 96 % 1006,7 hPa 0,0 l/m 0 min 0 min 0,0 UV-I 0 W/m 7,7 km/h (2 Bft)
18.09.2013 23:56 10,0 C 8,9 C 96 % 1006,8 hPa 0,0 l/m 0 min 0 min 0,0 UV-I 0 W/m 12,9 km/h (3 Bft)
18.09.2013 23:58 10,0 C 8,9 C 96 % 1006,8 hPa 0,0 l/m 0 min 0 min 0,0 UV-I 0 W/m 0,0 km/h (0 Bft)
_ Min-Zeit 00:00 23:36 16:18 01:44 - - - - - 01:22
Minimum _ 9,9 C 8,3 C 73 % 992,7 hPa - - - - - 0,0 km/h (0 Bft)
_ Max-Zeit 16:26 16:40 01:40 23:44 00:06 15:24 00:00 15:48 16:14 19:00
Maximum _ 15,9 C 15,6 C 99 % 1006,8 hPa 0,2 l/m 2 min 2 min 1,6 UV-I 591 W/m 20,6 km/h
SW (4 Bft)
Durchschnitt _ 12,0 C 11,1 C 93 % 998,9 hPa #1,2 l/m #1:02 h #2:30 h 1,0 UV-I 160 W/m 4,1 km/h (1 Bft)
© 2013 W. Hausmann